GFSNW_500_temp_000.txt.gz
Temp
-14 -14 -13 -13 -13 -13 -13 -13 -13 -13 -13 -13 -13 -13 -13 -13 -14 -14 -14 -14 -14 -15 -15 -15 -15 -15 -15 -15 -15 -15 -15 -15 -15 -15 -15 -15 -15 -15 -15 -15 -14 -14 -15 -14
-14 -14 -13 -13 -13 -13 -13 -13 -13 -14 -14 -14 -14 -14 -14 -14 -14 -14 -14 -15 -15 -15 -15 -15 -15 -15 -15 -15 -15 -15 -15 -15 -15 -15 -15 -15 -15 -15 -16 -15 -15 -15 -15 -16
-14 -14 -14 -13 -13 -13 -13 -13 -14 -14 -14 -14 -14 -14 -14 -14 -14 -14 -14 -15 -15 -15 -15 -15 -15 -15 -15 -15 -16 -16 -16 -16 -16 -16 -16 -16 -16 -16 -16 -16 -15 -16 -16 -15
-14 -14 -14 -14 -14 -14 -14 -14 -14 -14 -14 -14 -14 -14 -14 -14 -14 -14 -15 -15 -15 -15 -15 -15 -16 -16 -16 -16 -16 -16 -16 -16 -17 -16 -17 -17 -16 -16 -16 -16 -16 -16 -16 -16
-14 -14 -14 -14 -14 -14 -14 -14 -14 -14 -14 -14 -14 -14 -14 -15 -15 -15 -15 -15 -15 -15 -15 -16 -16 -16 -16 -17 -17 -17 -17 -17 -17 -16 -17 -16 -16 -17 -17 -17 -17 -17 -17 -17
-15 -14 -14 -14 -14 -14 -14 -14 -14 -14 -14 -14 -14 -15 -15 -15 -15 -15 -15 -15 -15 -16 -16 -16 -16 -16 -16 -16 -17 -17 -17 -17 -17 -17 -16 -16 -17 -17 -17 -17 -17 -17 -17 -17
-15 -14 -14 -14 -14 -14 -14 -14 -14 -14 -14 -14 -15 -15 -15 -15 -15 -15 -16 -16 -16 -16 -16 -16 -16 -17 -17 -17 -17 -17 -17 -17 -17 -17 -17 -16 -17 -17 -17 -17 -17 -18 -17 -17
-15 -15 -15 -14 -14 -15 -14 -14 -14 -14 -14 -15 -15 -15 -15 -15 -15 -16 -16 -16 -16 -16 -16 -16 -16 -17 -17 -17 -17 -17 -17 -17 -17 -16 -16 -17 -17 -17 -17 -17 -17 -18 -18 -18
-15 -15 -15 -15 -15 -15 -15 -15 -15 -15 -15 -15 -15 -15 -15 -15 -15 -16 -16 -16 -16 -16 -16 -16 -16 -16 -17 -17 -17 -17 -17 -17 -17 -17 -17 -17 -18 -18 -18 -18 -17 -17 -18 -18
-16 -15 -15 -15 -15 -15 -15 -15 -15 -15 -15 -15 -15 -15 -15 -15 -16 -16 -16 -16 -16 -16 -16 -16 -16 -16 -17 -17 -17 -17 -18 -18 -18 -18 -17 -17 -18 -18 -18 -18 -17 -17 -18 -19
-16 -16 -15 -15 -15 -15 -15 -15 -15 -15 -15 -15 -15 -15 -16 -16 -16 -16 -16 -16 -16 -16 -16 -16 -17 -17 -17 -17 -17 -18 -18 -18 -18 -18 -18 -18 -19 -19 -18 -18 -18 -19 -19 -20
-17 -17 -16 -16 -16 -16 -16 -15 -15 -15 -15 -16 -16 -16 -16 -16 -16 -16 -16 -16 -16 -16 -17 -17 -17 -17 -17 -17 -17 -18 -18 -18 -18 -18 -18 -19 -19 -19 -19 -19 -19 -20 -20 -20
-17 -17 -17 -16 -16 -16 -16 -16 -16 -16 -16 -16 -16 -16 -16 -16 -16 -17 -17 -17 -17 -17 -17 -17 -17 -18 -18 -17 -17 -17 -18 -18 -18 -18 -19 -19 -19 -20 -19 -20 -21 -21 -21 -21
-17 -17 -17 -17 -17 -17 -17 -17 -17 -17 -17 -16 -16 -17 -17 -17 -17 -17 -17 -17 -17 -17 -17 -17 -18 -18 -18 -18 -18 -18 -19 -18 -19 -19 -19 -19 -19 -19 -20 -20 -21 -21 -21 -22
-18 -18 -17 -17 -17 -17 -17 -17 -17 -17 -17 -17 -17 -17 -17 -17 -17 -18 -17 -17 -17 -18 -18 -18 -18 -18 -19 -18 -18 -18 -20 -20 -19 -19 -19 -19 -19 -19 -20 -20 -21 -21 -22 -22
-19 -18 -18 -18 -18 -18 -18 -18 -18 -18 -18 -17 -17 -17 -17 -17 -18 -18 -18 -18 -18 -18 -18 -18 -18 -19 -19 -18 -18 -19 -20 -20 -19 -19 -20 -20 -20 -20 -21 -21 -21 -22 -22 -23
-19 -18 -18 -18 -18 -18 -18 -18 -18 -18 -18 -18 -17 -17 -17 -19 -19 -19 -19 -19 -19 -19 -18 -18 -18 -19 -20 -19 -19 -20 -20 -20 -20 -20 -20 -21 -21 -21 -22 -22 -22 -23 -23 -24
-19 -19 -19 -19 -19 -18 -18 -18 -18 -19 -19 -18 -17 -17 -17 -18 -19 -19 -19 -19 -19 -18 -18 -18 -18 -19 -19 -19 -20 -20 -20 -20 -20 -20 -21 -21 -22 -22 -23 -23 -23 -24 -24 -25
-19 -19 -19 -19 -18 -18 -18 -19 -19 -19 -19 -19 -18 -18 -17 -17 -18 -19 -19 -19 -19 -19 -19 -19 -19 -19 -19 -20 -21 -21 -21 -21 -21 -21 -22 -22 -22 -23 -23 -24 -24 -25 -26 -27
-19 -19 -19 -19 -19 -19 -19 -20 -19 -19 -19 -19 -18 -18 -18 -18 -19 -19 -19 -19 -19 -19 -19 -20 -20 -20 -21 -21 -21 -21 -21 -21 -22 -22 -23 -23 -23 -24 -24 -25 -26 -27 -27 -28
-20 -20 -20 -20 -19 -20 -19 -19 -19 -19 -18 -18 -18 -18 -19 -19 -19 -20 -20 -19 -20 -19 -19 -20 -20 -20 -22 -21 -21 -22 -22 -23 -23 -23 -24 -24 -25 -25 -25 -25 -27 -28 -29 -29
-21 -20 -20 -20 -20 -20 -20 -19 -19 -19 -19 -18 -19 -20 -20 -20 -20 -20 -20 -20 -20 -20 -20 -20 -20 -21 -22 -22 -22 -22 -23 -23 -24 -24 -25 -25 -25 -26 -27 -28 -28 -29 -29 -29
-21 -21 -20 -20 -20 -20 -20 -19 -19 -19 -20 -20 -20 -20 -20 -20 -20 -21 -21 -21 -21 -21 -21 -21 -22 -22 -22 -23 -23 -23 -24 -24 -24 -25 -25 -26 -27 -28 -29 -29 -29 -30 -30 -30
-21 -21 -21 -21 -20 -20 -20 -20 -20 -20 -20 -20 -20 -21 -21 -21 -21 -21 -21 -22 -22 -22 -22 -23 -23 -23 -23 -24 -24 -24 -25 -26 -26 -26 -27 -28 -29 -29 -29 -30 -30 -30 -30 -30
-22 -22 -22 -21 -21 -21 -21 -21 -21 -21 -21 -21 -21 -21 -21 -21 -22 -22 -22 -22 -23 -24 -25 -24 -24 -24 -24 -25 -26 -26 -26 -26 -27 -28 -29 -29 -29 -29 -30 -30 -30 -30 -31 -31
-23 -23 -22 -22 -23 -23 -23 -22 -23 -23 -23 -22 -22 -22 -22 -22 -23 -23 -23 -24 -26 -26 -25 -25 -25 -25 -26 -27 -27 -27 -28 -28 -29 -29 -29 -30 -30 -30 -30 -30 -31 -31 -31 -31
-24 -23 -24 -24 -24 -24 -24 -24 -24 -24 -23 -23 -23 -23 -24 -24 -23 -24 -25 -26 -26 -25 -25 -26 -27 -28 -28 -28 -28 -29 -29 -30 -30 -30 -30 -30 -31 -31 -31 -31 -31 -31 -32 -32

GFSNW_500_temp_003.txt.gz
Temp
-15 -14 -14 -13 -13 -13 -13 -13 -13 -13 -13 -13 -13 -13 -13 -13 -13 -14 -14 -14 -14 -14 -15 -15 -15 -15 -15 -15 -15 -15 -15 -15 -15 -15 -15 -15 -15 -15 -15 -15 -15 -15 -15 -15
-15 -14 -14 -14 -13 -13 -13 -13 -13 -13 -13 -14 -14 -14 -14 -14 -14 -14 -14 -14 -14 -14 -15 -15 -15 -15 -15 -15 -15 -15 -16 -16 -16 -16 -16 -16 -16 -16 -17 -16 -16 -16 -15 -16
-15 -15 -15 -14 -13 -13 -13 -13 -13 -13 -14 -14 -14 -14 -14 -14 -14 -14 -14 -14 -14 -15 -15 -15 -15 -15 -15 -16 -16 -16 -16 -16 -16 -16 -16 -16 -16 -16 -17 -17 -16 -16 -16 -16
-16 -15 -15 -14 -14 -13 -13 -13 -13 -14 -14 -15 -14 -14 -14 -14 -14 -14 -14 -14 -14 -15 -15 -15 -15 -15 -16 -16 -16 -16 -16 -16 -16 -16 -16 -16 -16 -16 -17 -17 -17 -16 -17 -17
-16 -15 -15 -15 -14 -14 -14 -13 -14 -14 -14 -14 -15 -15 -15 -15 -14 -14 -15 -15 -15 -15 -15 -15 -15 -16 -16 -16 -16 -16 -17 -16 -16 -16 -16 -16 -16 -17 -17 -17 -17 -17 -17 -17
-16 -16 -15 -15 -14 -14 -14 -14 -14 -14 -14 -15 -15 -15 -15 -15 -15 -15 -15 -15 -15 -15 -16 -16 -16 -16 -16 -17 -17 -17 -17 -17 -16 -16 -16 -16 -16 -16 -17 -17 -18 -17 -17 -17
-16 -16 -15 -15 -15 -14 -14 -14 -14 -14 -14 -14 -15 -15 -15 -15 -15 -15 -15 -15 -16 -16 -16 -16 -16 -16 -16 -17 -17 -17 -16 -16 -16 -16 -17 -17 -17 -17 -17 -17 -17 -17 -17 -17
-16 -16 -15 -15 -15 -14 -14 -14 -14 -14 -14 -15 -15 -15 -15 -15 -15 -15 -15 -16 -16 -16 -16 -16 -16 -16 -16 -16 -16 -17 -17 -16 -16 -16 -16 -16 -18 -18 -17 -17 -17 -18 -17 -18
-16 -16 -16 -15 -15 -15 -14 -14 -15 -15 -15 -15 -15 -15 -15 -15 -15 -16 -16 -16 -16 -16 -16 -16 -16 -16 -16 -16 -16 -17 -17 -17 -17 -17 -17 -17 -18 -18 -18 -17 -17 -17 -18 -18
-17 -16 -16 -16 -15 -15 -15 -14 -15 -15 -15 -15 -15 -15 -15 -15 -15 -15 -15 -15 -16 -16 -16 -16 -16 -16 -16 -16 -17 -17 -17 -17 -17 -17 -17 -17 -18 -18 -18 -17 -18 -18 -18 -18
-17 -17 -16 -16 -15 -15 -15 -15 -15 -15 -15 -15 -15 -15 -15 -15 -15 -15 -15 -16 -16 -16 -16 -16 -16 -16 -17 -17 -17 -17 -17 -17 -17 -17 -18 -18 -18 -18 -18 -18 -18 -19 -19 -19
-17 -17 -17 -16 -16 -15 -15 -15 -15 -15 -15 -15 -15 -15 -15 -15 -15 -16 -16 -16 -16 -16 -16 -16 -16 -17 -17 -17 -17 -18 -18 -18 -18 -18 -18 -19 -18 -18 -18 -19 -19 -19 -20 -20
-18 -17 -17 -17 -16 -16 -16 -15 -15 -15 -15 -15 -15 -15 -16 -16 -16 -16 -16 -16 -16 -16 -17 -17 -17 -17 -17 -17 -17 -18 -18 -18 -18 -18 -19 -19 -19 -19 -20 -20 -20 -20 -21 -21
-18 -18 -18 -17 -17 -17 -16 -16 -16 -16 -16 -16 -16 -16 -16 -16 -17 -17 -17 -17 -17 -17 -17 -17 -17 -17 -17 -18 -18 -18 -18 -18 -19 -18 -19 -19 -20 -20 -20 -21 -21 -21 -21 -22
-18 -18 -18 -18 -18 -17 -17 -17 -16 -16 -17 -16 -17 -17 -17 -17 -17 -17 -17 -18 -18 -17 -18 -18 -18 -18 -18 -18 -18 -18 -18 -18 -19 -19 -19 -19 -19 -20 -20 -21 -21 -21 -21 -22
-19 -19 -19 -18 -18 -18 -17 -17 -17 -17 -17 -17 -17 -17 -17 -17 -17 -18 -18 -18 -18 -18 -18 -18 -18 -19 -19 -18 -18 -18 -19 -19 -19 -19 -19 -20 -20 -21 -21 -21 -21 -22 -22 -23
-19 -19 -19 -19 -18 -18 -18 -18 -18 -18 -18 -18 -17 -17 -17 -18 -18 -18 -18 -19 -19 -19 -18 -18 -19 -19 -19 -19 -18 -19 -19 -20 -20 -20 -20 -21 -21 -21 -21 -22 -22 -23 -23 -24
-19 -19 -19 -19 -19 -18 -18 -18 -18 -19 -19 -18 -18 -17 -17 -18 -19 -19 -20 -19 -19 -18 -19 -19 -19 -19 -19 -19 -19 -20 -20 -20 -20 -20 -21 -21 -21 -22 -22 -23 -23 -23 -24 -24
-20 -20 -19 -19 -19 -19 -19 -19 -19 -19 -19 -19 -18 -18 -18 -18 -18 -19 -19 -19 -19 -19 -19 -19 -19 -19 -19 -19 -19 -19 -20 -20 -21 -21 -21 -22 -22 -23 -24 -24 -24 -24 -25 -26
-20 -20 -20 -19 -19 -19 -19 -20 -20 -20 -19 -18 -18 -18 -18 -18 -19 -19 -19 -19 -19 -19 -19 -19 -18 -19 -19 -20 -20 -20 -21 -21 -21 -21 -22 -23 -24 -24 -24 -24 -25 -26 -26 -27
-20 -20 -19 -19 -19 -20 -20 -20 -20 -19 -19 -19 -19 -19 -19 -19 -19 -20 -19 -20 -20 -19 -19 -19 -19 -19 -20 -20 -21 -21 -21 -21 -22 -23 -24 -24 -24 -24 -24 -25 -26 -26 -27 -28
-20 -20 -20 -20 -20 -20 -20 -20 -20 -19 -19 -19 -20 -20 -20 -20 -20 -20 -20 -20 -21 -20 -20 -20 -20 -20 -20 -20 -21 -21 -22 -23 -23 -24 -24 -24 -25 -25 -25 -26 -27 -28 -28 -29
-20 -20 -20 -20 -20 -20 -20 -20 -20 -20 -20 -20 -20 -20 -20 -20 -21 -21 -21 -21 -21 -21 -21 -21 -21 -21 -21 -21 -21 -22 -23 -24 -24 -24 -24 -25 -25 -26 -27 -28 -29 -29 -29 -30
-21 -21 -21 -21 -20 -20 -20 -20 -21 -21 -21 -21 -21 -21 -21 -21 -21 -21 -21 -21 -21 -21 -21 -22 -22 -22 -22 -23 -24 -24 -24 -24 -24 -25 -25 -26 -26 -27 -28 -29 -29 -30 -30 -30
-21 -21 -21 -21 -21 -21 -21 -21 -21 -21 -21 -21 -21 -21 -21 -21 -21 -21 -21 -22 -22 -23 -23 -23 -23 -23 -24 -25 -25 -25 -25 -25 -26 -27 -27 -28 -28 -29 -29 -29 -30 -30 -30 -31
-22 -21 -21 -22 -22 -21 -21 -21 -21 -21 -21 -21 -21 -21 -22 -22 -22 -22 -23 -24 -24 -25 -24 -24 -24 -25 -25 -25 -26 -25 -26 -27 -27 -28 -29 -29 -29 -30 -30 -30 -30 -31 -31 -31
-24 -24 -24 -23 -23 -23 -23 -22 -22 -22 -22 -23 -23 -23 -23 -23 -23 -23 -24 -25 -25 -25 -24 -24 -25 -26 -26 -26 -26 -27 -27 -28 -29 -29 -30 -30 -30 -31 -31 -31 -31 -31 -32 -32

GFSNW_500_temp_006.txt.gz
Temp
-15 -14 -14 -13 -13 -13 -13 -13 -13 -13 -13 -13 -13 -13 -13 -13 -13 -13 -13 -14 -14 -14 -14 -14 -15 -15 -15 -15 -15 -15 -15 -15 -15 -15 -15 -15 -15 -15 -16 -15 -15 -15 -16 -16
-15 -14 -14 -14 -13 -13 -13 -13 -13 -13 -13 -13 -13 -13 -13 -13 -13 -13 -13 -13 -14 -14 -14 -15 -15 -14 -15 -15 -15 -15 -16 -16 -15 -15 -15 -15 -16 -16 -16 -16 -16 -16 -16 -17
-16 -15 -14 -14 -14 -13 -13 -13 -13 -13 -13 -13 -13 -14 -14 -14 -14 -14 -13 -14 -14 -14 -14 -15 -15 -15 -15 -15 -15 -16 -16 -16 -16 -16 -16 -16 -16 -16 -16 -16 -16 -16 -17 -17
-16 -15 -15 -14 -14 -14 -13 -13 -13 -13 -13 -14 -14 -14 -14 -14 -14 -14 -14 -14 -14 -14 -14 -15 -15 -15 -15 -15 -16 -16 -16 -16 -16 -16 -16 -16 -16 -17 -17 -17 -17 -17 -17 -17
-16 -16 -15 -15 -14 -14 -14 -13 -14 -13 -13 -14 -14 -14 -14 -14 -14 -14 -14 -14 -14 -14 -14 -15 -15 -15 -15 -15 -16 -16 -16 -16 -16 -16 -16 -16 -16 -17 -17 -17 -17 -17 -18 -18
-17 -16 -16 -16 -15 -14 -14 -14 -14 -14 -14 -14 -14 -14 -14 -14 -14 -14 -14 -14 -14 -15 -15 -15 -15 -15 -16 -16 -16 -16 -16 -16 -16 -16 -16 -16 -16 -16 -16 -17 -17 -18 -18 -18
-17 -17 -16 -16 -15 -15 -14 -14 -14 -14 -14 -14 -14 -14 -14 -14 -14 -14 -14 -14 -15 -15 -15 -15 -15 -16 -16 -16 -16 -16 -16 -16 -16 -16 -16 -16 -17 -17 -17 -17 -18 -18 -18 -18
-17 -17 -16 -16 -16 -15 -15 -15 -14 -14 -14 -14 -14 -14 -15 -15 -14 -14 -14 -15 -15 -15 -15 -15 -16 -16 -16 -16 -17 -16 -16 -16 -16 -16 -16 -16 -17 -17 -17 -17 -18 -18 -18 -18
-17 -17 -17 -16 -16 -15 -15 -15 -15 -14 -15 -15 -15 -15 -15 -15 -15 -15 -15 -15 -15 -15 -15 -15 -16 -16 -16 -16 -17 -17 -16 -16 -16 -17 -17 -17 -17 -17 -17 -17 -17 -18 -18 -18
-18 -17 -17 -16 -16 -16 -15 -15 -15 -15 -15 -15 -15 -15 -15 -15 -15 -15 -15 -15 -15 -15 -15 -16 -16 -16 -16 -16 -17 -17 -17 -17 -17 -17 -17 -17 -17 -17 -17 -17 -18 -18 -18 -18
-18 -18 -17 -17 -16 -16 -16 -15 -15 -15 -15 -15 -15 -15 -15 -15 -15 -15 -15 -15 -15 -15 -16 -16 -16 -16 -16 -16 -17 -17 -17 -17 -17 -17 -18 -17 -18 -17 -17 -18 -18 -18 -18 -19
-18 -18 -17 -17 -16 -16 -16 -16 -16 -15 -15 -15 -15 -15 -15 -15 -15 -15 -15 -15 -15 -15 -16 -16 -16 -16 -16 -16 -16 -17 -17 -17 -18 -18 -18 -18 -18 -18 -18 -18 -18 -18 -19 -20
-18 -18 -18 -17 -17 -17 -16 -16 -16 -16 -16 -15 -15 -15 -15 -15 -15 -15 -15 -16 -16 -16 -16 -16 -16 -16 -16 -17 -17 -17 -18 -18 -18 -18 -18 -18 -18 -18 -19 -19 -19 -20 -20 -20
-18 -18 -18 -18 -18 -17 -17 -16 -16 -16 -16 -16 -15 -16 -15 -16 -16 -16 -16 -16 -16 -17 -17 -16 -16 -17 -17 -17 -17 -17 -19 -18 -18 -18 -19 -18 -19 -19 -19 -19 -20 -20 -20 -21
-19 -19 -18 -18 -18 -17 -17 -17 -17 -16 -17 -16 -16 -16 -16 -16 -16 -16 -16 -17 -17 -17 -17 -17 -17 -18 -18 -18 -17 -18 -19 -19 -18 -18 -18 -18 -18 -19 -19 -20 -20 -21 -21 -20
-19 -19 -19 -19 -18 -18 -18 -18 -17 -17 -17 -17 -16 -16 -16 -16 -16 -17 -17 -17 -18 -18 -18 -18 -18 -18 -19 -18 -17 -19 -19 -19 -18 -18 -18 -19 -19 -19 -20 -20 -20 -20 -21 -22
-19 -19 -19 -19 -19 -19 -18 -18 -18 -18 -18 -18 -17 -17 -17 -17 -17 -17 -18 -18 -18 -18 -18 -18 -18 -19 -19 -18 -18 -19 -19 -19 -19 -19 -19 -19 -19 -20 -20 -20 -20 -21 -22 -23
-19 -19 -19 -19 -19 -19 -19 -18 -19 -19 -19 -18 -18 -17 -17 -18 -18 -18 -19 -19 -19 -18 -18 -18 -18 -19 -19 -19 -19 -19 -19 -19 -19 -19 -19 -20 -20 -20 -21 -21 -21 -22 -23 -23
-19 -20 -20 -19 -19 -19 -19 -19 -19 -19 -19 -18 -18 -18 -18 -18 -18 -19 -19 -19 -19 -19 -19 -19 -19 -19 -19 -20 -20 -20 -20 -20 -20 -20 -20 -20 -21 -21 -22 -22 -23 -23 -24 -24
-20 -20 -20 -19 -19 -19 -20 -20 -20 -19 -19 -18 -18 -18 -18 -18 -19 -19 -20 -19 -19 -19 -19 -19 -19 -18 -19 -20 -20 -20 -20 -20 -20 -21 -21 -21 -21 -22 -23 -23 -24 -24 -24 -25
-19 -20 -20 -19 -20 -20 -20 -20 -20 -20 -19 -18 -18 -18 -19 -19 -19 -19 -19 -20 -20 -19 -19 -19 -19 -19 -20 -20 -20 -20 -21 -21 -21 -21 -22 -22 -23 -23 -24 -24 -24 -24 -25 -26
-19 -19 -20 -20 -20 -20 -20 -20 -20 -19 -19 -18 -18 -19 -20 -20 -20 -20 -20 -20 -20 -20 -19 -19 -19 -20 -21 -21 -21 -21 -21 -22 -22 -22 -23 -23 -24 -24 -24 -24 -25 -25 -26 -27
-20 -19 -20 -20 -20 -20 -20 -20 -19 -19 -19 -19 -19 -20 -20 -20 -21 -21 -21 -20 -20 -20 -20 -20 -20 -21 -21 -21 -21 -22 -22 -22 -22 -23 -23 -24 -24 -25 -25 -26 -27 -27 -28 -29
-20 -20 -20 -20 -20 -20 -20 -20 -20 -20 -20 -20 -20 -20 -20 -21 -21 -21 -21 -21 -21 -21 -21 -21 -21 -21 -21 -22 -22 -23 -23 -23 -23 -24 -24 -25 -25 -26 -27 -28 -28 -28 -29 -30
-21 -21 -21 -21 -21 -20 -20 -20 -20 -20 -20 -20 -20 -21 -21 -21 -21 -21 -21 -21 -21 -21 -22 -21 -21 -22 -22 -23 -23 -24 -24 -24 -25 -25 -26 -26 -27 -27 -28 -29 -29 -29 -30 -30
-22 -22 -21 -21 -21 -21 -21 -21 -21 -21 -21 -21 -21 -21 -21 -21 -21 -21 -22 -22 -22 -23 -22 -22 -23 -23 -24 -24 -25 -24 -25 -25 -26 -26 -27 -27 -28 -28 -29 -29 -30 -31 -31 -31
-22 -22 -22 -22 -22 -22 -22 -22 -22 -22 -22 -22 -22 -22 -22 -22 -22 -22 -23 -23 -23 -23 -23 -23 -24 -25 -25 -25 -25 -26 -26 -27 -27 -27 -28 -29 -29 -30 -30 -30 -31 -31 -32 -32

GFSNW_500_temp_009.txt.gz
Temp
-14 -14 -14 -14 -14 -14 -14 -14 -14 -14 -14 -14 -14 -13 -13 -13 -13 -13 -13 -13 -14 -14 -14 -14 -14 -14 -14 -14 -14 -15 -15 -15 -15 -15 -15 -15 -15 -15 -15 -16 -16 -16 -16 -16
-15 -14 -14 -14 -14 -14 -14 -14 -14 -14 -14 -14 -13 -13 -13 -13 -13 -13 -13 -14 -14 -14 -14 -14 -14 -14 -14 -14 -14 -15 -15 -15 -15 -14 -14 -14 -15 -15 -16 -16 -16 -16 -16 -17
-16 -15 -15 -14 -14 -14 -14 -14 -14 -14 -13 -13 -13 -13 -13 -13 -13 -13 -13 -14 -14 -14 -14 -14 -14 -14 -14 -15 -15 -15 -15 -15 -15 -16 -16 -15 -15 -16 -16 -16 -16 -16 -17 -17
-16 -15 -15 -15 -14 -14 -14 -14 -14 -14 -13 -13 -13 -13 -13 -13 -13 -13 -13 -14 -14 -14 -14 -14 -14 -14 -14 -15 -15 -15 -15 -15 -15 -16 -16 -15 -16 -16 -16 -16 -16 -16 -17 -17
-16 -16 -15 -15 -15 -14 -14 -14 -14 -13 -14 -13 -13 -13 -14 -14 -14 -14 -14 -14 -14 -14 -14 -14 -14 -14 -15 -15 -15 -15 -15 -15 -16 -16 -16 -15 -16 -16 -16 -16 -16 -17 -17 -17
-17 -16 -16 -15 -15 -15 -14 -14 -14 -14 -14 -13 -13 -14 -14 -14 -14 -14 -14 -14 -14 -14 -14 -14 -14 -15 -15 -15 -15 -15 -15 -16 -16 -16 -16 -16 -16 -16 -16 -16 -16 -17 -17 -17
-17 -16 -16 -16 -16 -15 -15 -14 -14 -14 -14 -14 -14 -14 -14 -14 -14 -14 -14 -14 -14 -14 -14 -14 -15 -15 -15 -15 -15 -15 -15 -16 -16 -16 -16 -16 -16 -16 -16 -17 -17 -17 -17 -17
-17 -17 -17 -16 -16 -16 -15 -15 -14 -14 -14 -14 -14 -14 -14 -15 -14 -14 -14 -14 -14 -14 -14 -15 -15 -15 -15 -15 -15 -15 -16 -16 -16 -16 -16 -16 -16 -16 -17 -17 -18 -17 -17 -18
-18 -18 -17 -16 -16 -16 -16 -15 -15 -15 -15 -14 -14 -14 -14 -14 -15 -14 -14 -14 -14 -14 -15 -15 -15 -15 -15 -15 -16 -16 -16 -16 -16 -17 -16 -16 -17 -17 -17 -17 -17 -17 -17 -17
-18 -18 -17 -17 -17 -16 -16 -16 -16 -15 -15 -15 -15 -14 -15 -15 -15 -15 -15 -14 -14 -14 -15 -15 -15 -15 -16 -16 -16 -16 -16 -16 -17 -17 -17 -17 -17 -17 -17 -18 -18 -18 -18 -18
-18 -18 -18 -18 -17 -17 -16 -16 -16 -16 -16 -15 -15 -15 -15 -15 -15 -15 -15 -15 -15 -15 -15 -15 -15 -15 -16 -16 -16 -16 -17 -17 -17 -17 -17 -17 -17 -17 -17 -18 -18 -18 -18 -18
-18 -18 -18 -18 -17 -17 -17 -16 -16 -16 -16 -15 -15 -15 -15 -15 -15 -15 -15 -15 -15 -15 -15 -15 -15 -16 -16 -16 -16 -17 -17 -17 -17 -17 -17 -18 -18 -18 -18 -18 -18 -18 -18 -18
-18 -18 -18 -18 -18 -17 -17 -16 -16 -16 -16 -16 -15 -15 -15 -15 -15 -15 -15 -15 -15 -15 -15 -15 -16 -16 -16 -16 -16 -17 -18 -18 -17 -17 -18 -18 -18 -18 -18 -18 -18 -18 -18 -18
-18 -18 -18 -18 -18 -18 -17 -17 -17 -16 -16 -16 -15 -15 -15 -15 -15 -15 -15 -15 -16 -16 -16 -16 -16 -16 -16 -16 -17 -17 -18 -18 -18 -17 -18 -18 -19 -18 -18 -18 -18 -19 -19 -19
-18 -18 -18 -18 -18 -18 -18 -17 -17 -17 -17 -16 -16 -16 -16 -16 -16 -16 -16 -16 -16 -16 -16 -16 -17 -16 -17 -16 -17 -17 -19 -19 -18 -18 -18 -19 -19 -19 -19 -19 -19 -19 -19 -20
-19 -19 -18 -18 -18 -18 -18 -18 -17 -17 -17 -17 -16 -16 -16 -16 -16 -16 -16 -17 -17 -17 -17 -17 -16 -17 -18 -17 -17 -18 -19 -19 -19 -19 -19 -19 -19 -19 -20 -20 -20 -20 -20 -20
-19 -19 -19 -19 -19 -19 -18 -18 -18 -18 -18 -17 -17 -16 -16 -17 -16 -17 -17 -17 -17 -17 -17 -17 -17 -18 -18 -17 -18 -19 -19 -19 -19 -19 -19 -19 -20 -19 -19 -20 -20 -20 -20 -21
-19 -19 -19 -19 -19 -19 -19 -19 -19 -19 -18 -18 -17 -16 -17 -17 -17 -17 -18 -18 -18 -18 -18 -18 -18 -18 -18 -18 -19 -19 -19 -19 -19 -19 -20 -20 -20 -20 -20 -20 -21 -21 -21 -22
-19 -19 -19 -19 -19 -19 -19 -19 -19 -19 -19 -18 -17 -17 -17 -18 -18 -18 -18 -19 -19 -18 -18 -18 -18 -18 -18 -19 -20 -19 -19 -20 -20 -20 -20 -20 -20 -20 -21 -21 -21 -22 -22 -23
-19 -19 -19 -19 -18 -19 -20 -20 -19 -19 -19 -18 -18 -18 -18 -18 -18 -19 -19 -19 -19 -18 -18 -19 -19 -19 -19 -20 -20 -20 -20 -20 -20 -20 -20 -20 -21 -21 -21 -22 -22 -23 -23 -24
-19 -19 -19 -19 -19 -20 -20 -20 -20 -19 -18 -18 -18 -18 -18 -19 -19 -19 -19 -19 -19 -19 -19 -19 -19 -19 -19 -20 -20 -20 -20 -20 -21 -21 -21 -21 -22 -22 -22 -23 -23 -23 -24 -24
-19 -19 -19 -19 -20 -20 -20 -20 -20 -19 -18 -18 -17 -18 -19 -19 -19 -19 -19 -20 -20 -20 -19 -19 -19 -19 -20 -20 -20 -20 -21 -21 -21 -21 -21 -22 -23 -23 -23 -23 -24 -24 -24 -25
-20 -20 -20 -20 -20 -20 -20 -19 -19 -18 -18 -18 -19 -19 -20 -20 -19 -20 -20 -20 -20 -20 -19 -19 -20 -20 -21 -21 -21 -21 -21 -21 -21 -22 -22 -23 -23 -23 -24 -24 -24 -25 -25 -27
-20 -20 -20 -20 -20 -20 -19 -19 -19 -19 -19 -19 -19 -19 -19 -20 -20 -20 -21 -20 -20 -20 -20 -20 -21 -21 -21 -21 -21 -22 -22 -22 -22 -23 -23 -23 -24 -24 -24 -25 -25 -26 -27 -28
-21 -20 -20 -20 -20 -20 -20 -20 -20 -20 -19 -19 -19 -20 -20 -20 -20 -20 -20 -20 -21 -21 -21 -21 -21 -21 -21 -22 -22 -22 -23 -23 -23 -23 -24 -24 -24 -25 -25 -26 -27 -28 -29 -29
-22 -21 -21 -21 -21 -21 -21 -20 -20 -20 -21 -20 -20 -20 -20 -21 -21 -21 -21 -21 -21 -21 -21 -21 -22 -22 -22 -23 -23 -23 -23 -24 -24 -24 -25 -25 -26 -26 -27 -28 -29 -29 -30 -30
-22 -22 -22 -22 -22 -22 -22 -21 -21 -21 -21 -21 -21 -21 -21 -21 -21 -21 -22 -22 -22 -22 -22 -23 -23 -24 -24 -24 -24 -24 -25 -25 -25 -25 -26 -27 -28 -28 -29 -29 -29 -30 -30 -31

GFSNW_500_temp_015.txt.gz
Temp
-15 -14 -14 -14 -14 -14 -14 -14 -14 -15 -14 -14 -14 -14 -14 -14 -14 -14 -14 -14 -14 -14 -14 -14 -14 -14 -15 -14 -14 -14 -15 -15 -15 -15 -15 -14 -14 -15 -15 -15 -15 -15 -15 -16
-15 -14 -14 -14 -14 -14 -14 -15 -14 -14 -14 -14 -14 -14 -14 -14 -14 -14 -14 -14 -14 -14 -14 -14 -14 -14 -14 -14 -14 -14 -15 -14 -14 -14 -14 -14 -14 -14 -14 -14 -14 -15 -16 -16
-15 -15 -15 -14 -14 -14 -14 -14 -14 -14 -14 -14 -14 -14 -14 -14 -14 -14 -14 -14 -14 -14 -14 -14 -14 -14 -14 -14 -14 -14 -14 -14 -14 -14 -14 -14 -14 -15 -15 -15 -15 -15 -15 -15
-15 -15 -15 -15 -15 -14 -14 -14 -14 -14 -14 -14 -14 -14 -14 -14 -14 -14 -14 -14 -14 -14 -14 -14 -14 -14 -14 -14 -14 -14 -14 -14 -14 -14 -14 -14 -15 -15 -15 -15 -15 -15 -15 -16
-16 -15 -15 -15 -15 -15 -14 -14 -14 -14 -14 -14 -14 -14 -14 -14 -14 -14 -14 -14 -14 -14 -13 -13 -14 -14 -14 -14 -15 -15 -14 -14 -15 -15 -15 -15 -15 -15 -15 -15 -15 -16 -16 -16
-17 -16 -15 -15 -15 -15 -14 -15 -14 -14 -14 -14 -14 -14 -14 -14 -14 -14 -14 -14 -14 -13 -14 -14 -14 -14 -14 -14 -14 -15 -15 -15 -15 -15 -15 -15 -15 -15 -15 -16 -16 -16 -16 -16
-17 -16 -16 -15 -15 -15 -15 -15 -14 -14 -14 -14 -14 -14 -14 -14 -14 -14 -13 -13 -14 -14 -15 -14 -14 -14 -14 -14 -15 -15 -15 -15 -15 -15 -15 -15 -15 -15 -15 -16 -16 -16 -16 -16
-18 -17 -16 -16 -15 -15 -15 -15 -14 -14 -14 -14 -14 -14 -14 -13 -13 -14 -14 -15 -15 -15 -15 -15 -14 -14 -14 -15 -15 -15 -15 -15 -15 -15 -15 -15 -15 -15 -16 -16 -16 -17 -17 -17
-18 -18 -17 -17 -16 -15 -15 -15 -15 -15 -14 -14 -14 -14 -14 -13 -14 -14 -14 -15 -15 -15 -15 -15 -15 -15 -14 -15 -15 -15 -15 -15 -15 -15 -15 -15 -15 -15 -16 -16 -16 -17 -17 -17
-18 -18 -18 -17 -17 -16 -16 -15 -15 -15 -15 -15 -14 -14 -14 -14 -14 -14 -14 -14 -15 -15 -15 -15 -15 -15 -15 -15 -15 -15 -15 -15 -15 -15 -15 -15 -16 -16 -16 -17 -17 -17 -17 -18
-19 -18 -18 -18 -17 -17 -16 -16 -15 -15 -15 -15 -15 -14 -14 -14 -14 -14 -15 -15 -15 -15 -16 -15 -15 -15 -15 -15 -15 -15 -15 -15 -16 -15 -16 -16 -16 -16 -16 -17 -17 -17 -18 -18
-19 -19 -18 -18 -18 -17 -17 -17 -16 -16 -16 -15 -15 -15 -14 -14 -14 -14 -15 -15 -16 -15 -16 -15 -15 -15 -15 -15 -15 -15 -15 -16 -16 -16 -16 -17 -16 -16 -16 -17 -17 -18 -18 -18
-19 -19 -18 -18 -18 -17 -18 -17 -17 -17 -16 -16 -16 -16 -16 -16 -15 -15 -16 -16 -16 -16 -16 -16 -16 -16 -16 -16 -15 -16 -16 -16 -16 -16 -16 -17 -17 -17 -17 -17 -18 -18 -18 -19
-19 -19 -19 -18 -18 -18 -18 -18 -17 -17 -17 -17 -16 -16 -17 -16 -16 -16 -16 -16 -16 -16 -16 -16 -16 -16 -16 -15 -16 -16 -17 -17 -17 -17 -17 -17 -17 -18 -18 -18 -19 -19 -19 -19
-19 -19 -19 -19 -18 -18 -18 -17 -17 -17 -17 -17 -17 -17 -17 -17 -17 -17 -17 -17 -17 -16 -16 -16 -16 -16 -16 -15 -15 -15 -17 -17 -18 -17 -18 -18 -18 -18 -18 -19 -19 -19 -19 -20
-19 -19 -19 -19 -19 -18 -18 -18 -18 -17 -17 -17 -17 -17 -17 -17 -17 -17 -17 -17 -17 -17 -17 -16 -16 -17 -17 -15 -15 -16 -17 -18 -19 -18 -18 -19 -18 -19 -19 -19 -19 -20 -20 -20
-19 -19 -19 -19 -18 -18 -18 -18 -18 -18 -18 -18 -17 -17 -17 -17 -17 -17 -17 -17 -17 -17 -17 -16 -17 -17 -16 -16 -15 -17 -18 -19 -18 -18 -19 -19 -19 -19 -20 -20 -20 -20 -21 -20
-19 -19 -19 -19 -19 -18 -18 -18 -18 -18 -18 -18 -17 -17 -17 -18 -18 -18 -18 -18 -18 -17 -17 -16 -17 -17 -17 -16 -17 -18 -18 -19 -19 -19 -19 -19 -19 -20 -20 -20 -20 -21 -21 -21
-19 -19 -19 -19 -18 -19 -19 -19 -19 -18 -18 -18 -17 -17 -18 -18 -18 -19 -19 -19 -19 -18 -18 -18 -18 -17 -17 -18 -18 -18 -18 -19 -19 -19 -19 -20 -20 -20 -20 -20 -21 -21 -21 -21
-19 -19 -19 -19 -19 -19 -19 -19 -19 -19 -18 -18 -17 -18 -18 -18 -18 -19 -19 -19 -19 -18 -18 -18 -18 -17 -18 -19 -19 -19 -19 -19 -19 -19 -20 -20 -20 -20 -20 -21 -21 -21 -21 -22
-19 -19 -19 -19 -19 -19 -19 -19 -18 -18 -18 -18 -18 -18 -18 -19 -19 -20 -20 -19 -19 -19 -18 -19 -18 -18 -19 -19 -19 -19 -19 -19 -19 -20 -20 -20 -20 -20 -21 -21 -22 -22 -22 -23
-20 -19 -19 -20 -19 -19 -19 -19 -18 -18 -18 -18 -18 -18 -19 -19 -20 -20 -20 -20 -20 -19 -19 -19 -19 -18 -19 -19 -19 -19 -19 -19 -20 -20 -20 -21 -21 -21 -22 -22 -22 -23 -23 -24
-20 -20 -20 -20 -20 -20 -19 -19 -18 -18 -18 -17 -18 -19 -19 -19 -20 -20 -20 -20 -20 -20 -19 -19 -19 -19 -19 -19 -19 -19 -20 -20 -20 -21 -21 -21 -22 -22 -22 -23 -23 -24 -25 -25
-20 -20 -20 -20 -20 -20 -20 -19 -19 -18 -18 -18 -19 -19 -19 -19 -20 -20 -20 -20 -20 -20 -19 -19 -20 -20 -20 -19 -20 -20 -20 -20 -21 -21 -22 -22 -23 -23 -23 -24 -25 -25 -26 -26
-21 -21 -21 -21 -21 -21 -20 -20 -20 -20 -20 -19 -19 -19 -19 -19 -20 -20 -20 -20 -20 -20 -20 -20 -20 -20 -20 -20 -21 -21 -22 -22 -22 -23 -23 -23 -23 -24 -25 -25 -26 -26 -26 -26
-22 -22 -22 -22 -21 -21 -21 -21 -21 -21 -21 -21 -21 -21 -21 -21 -21 -21 -21 -21 -21 -21 -21 -21 -21 -21 -21 -22 -22 -22 -23 -23 -23 -23 -24 -24 -24 -25 -25 -26 -26 -27 -28 -28
-23 -23 -23 -23 -23 -22 -22 -21 -21 -21 -21 -21 -21 -21 -21 -21 -22 -22 -21 -22 -22 -22 -22 -23 -23 -23 -23 -23 -23 -23 -23 -24 -24 -24 -25 -25 -26 -26 -27 -27 -28 -29 -30 -30

GFSNW_500_temp_018.txt.gz
Temp
-16 -15 -15 -15 -15 -15 -15 -15 -15 -15 -15 -15 -15 -14 -14 -15 -15 -15 -14 -14 -14 -14 -14 -14 -15 -15 -15 -15 -15 -14 -14 -14 -15 -14 -14 -14 -14 -14 -14 -14 -14 -14 -15 -14
-16 -15 -15 -15 -15 -15 -15 -15 -15 -15 -15 -15 -15 -14 -14 -15 -14 -14 -14 -14 -14 -14 -14 -15 -14 -14 -15 -14 -14 -14 -15 -15 -15 -15 -15 -14 -14 -14 -14 -14 -14 -15 -15 -15
-16 -15 -15 -14 -15 -15 -15 -15 -15 -14 -15 -15 -15 -14 -14 -14 -14 -14 -14 -14 -14 -14 -14 -14 -14 -15 -14 -14 -14 -14 -15 -15 -15 -15 -15 -15 -14 -14 -14 -15 -15 -15 -15 -15
-16 -15 -15 -14 -15 -15 -15 -15 -15 -15 -15 -14 -14 -14 -14 -14 -14 -14 -14 -14 -14 -14 -14 -14 -14 -14 -14 -14 -15 -15 -15 -15 -14 -14 -14 -14 -14 -15 -15 -15 -15 -15 -15 -15
-16 -16 -15 -14 -15 -15 -15 -15 -15 -15 -15 -15 -14 -14 -14 -14 -14 -14 -14 -14 -14 -14 -14 -14 -15 -15 -15 -15 -15 -15 -15 -15 -15 -15 -15 -15 -15 -15 -15 -15 -15 -15 -15 -15
-16 -16 -15 -15 -15 -15 -15 -15 -15 -14 -15 -14 -14 -14 -14 -14 -14 -14 -14 -14 -14 -14 -14 -15 -15 -15 -15 -15 -15 -15 -15 -15 -15 -15 -15 -15 -15 -15 -15 -15 -15 -15 -16 -16
-16 -16 -15 -15 -15 -15 -15 -15 -15 -14 -15 -14 -14 -14 -14 -14 -14 -14 -14 -14 -14 -15 -15 -14 -14 -15 -15 -15 -15 -15 -15 -15 -15 -15 -15 -15 -15 -15 -16 -16 -16 -16 -16 -16
-17 -17 -16 -15 -15 -15 -15 -14 -15 -15 -15 -15 -15 -14 -14 -14 -14 -14 -14 -14 -14 -15 -15 -15 -14 -15 -15 -15 -15 -15 -15 -15 -15 -15 -15 -15 -15 -15 -16 -16 -16 -16 -16 -16
-18 -17 -16 -16 -15 -15 -15 -15 -15 -15 -15 -15 -14 -14 -14 -14 -14 -14 -14 -14 -14 -14 -15 -15 -15 -15 -15 -15 -15 -15 -16 -16 -16 -16 -15 -15 -15 -16 -16 -16 -16 -17 -17 -17
-18 -18 -17 -16 -16 -15 -15 -15 -15 -15 -15 -15 -14 -14 -14 -14 -14 -14 -14 -14 -14 -14 -15 -15 -15 -15 -15 -15 -15 -15 -16 -16 -16 -16 -15 -15 -16 -16 -16 -16 -16 -16 -17 -17
-19 -18 -18 -17 -16 -16 -16 -15 -15 -15 -15 -15 -15 -14 -14 -14 -14 -14 -14 -14 -14 -15 -15 -15 -15 -15 -15 -15 -15 -16 -16 -16 -16 -16 -16 -16 -16 -16 -16 -16 -17 -17 -17 -17
-19 -18 -18 -18 -17 -16 -16 -16 -16 -15 -15 -15 -15 -15 -14 -14 -14 -14 -14 -14 -14 -14 -15 -15 -15 -15 -15 -15 -16 -16 -16 -16 -16 -16 -16 -16 -16 -16 -16 -17 -17 -17 -17 -18
-19 -18 -18 -18 -18 -17 -17 -17 -16 -16 -15 -15 -15 -15 -15 -15 -15 -15 -15 -15 -15 -15 -16 -16 -16 -16 -16 -16 -16 -16 -17 -17 -16 -17 -17 -17 -17 -16 -16 -16 -16 -17 -17 -18
-19 -19 -18 -18 -18 -18 -17 -17 -17 -16 -16 -16 -16 -16 -15 -15 -15 -15 -16 -16 -16 -16 -17 -17 -17 -17 -16 -16 -16 -16 -17 -17 -17 -16 -17 -16 -16 -16 -17 -17 -17 -18 -18 -19
-19 -19 -18 -18 -18 -18 -18 -17 -17 -17 -17 -17 -17 -16 -16 -16 -16 -16 -16 -16 -17 -17 -17 -17 -17 -17 -17 -16 -16 -16 -18 -17 -17 -17 -17 -17 -17 -17 -17 -18 -18 -19 -19 -19
-19 -19 -19 -18 -18 -18 -18 -18 -17 -17 -17 -17 -17 -17 -17 -17 -17 -17 -17 -17 -17 -17 -17 -17 -17 -17 -17 -16 -16 -17 -18 -18 -18 -17 -17 -18 -18 -18 -18 -18 -19 -19 -19 -20
-19 -19 -19 -19 -19 -19 -18 -18 -18 -18 -18 -17 -17 -17 -17 -17 -17 -17 -18 -18 -18 -18 -17 -17 -17 -18 -17 -16 -16 -18 -18 -18 -18 -18 -18 -18 -18 -18 -19 -19 -19 -20 -20 -20
-19 -19 -19 -19 -19 -19 -18 -18 -18 -18 -18 -18 -17 -17 -18 -18 -18 -18 -19 -18 -19 -18 -17 -17 -18 -17 -18 -16 -18 -18 -18 -18 -18 -18 -18 -19 -19 -19 -19 -20 -20 -20 -20 -20
-19 -19 -19 -19 -19 -19 -18 -18 -18 -18 -18 -17 -17 -17 -18 -18 -19 -19 -19 -19 -19 -18 -18 -19 -18 -17 -17 -18 -18 -18 -18 -19 -19 -19 -19 -19 -19 -20 -20 -20 -21 -21 -21 -21
-19 -19 -19 -19 -19 -19 -19 -19 -18 -18 -18 -17 -17 -18 -18 -18 -19 -19 -19 -19 -19 -18 -18 -19 -18 -17 -18 -19 -19 -19 -19 -19 -19 -19 -19 -19 -19 -20 -20 -20 -21 -21 -21 -21
-19 -19 -19 -19 -19 -19 -19 -19 -18 -18 -18 -18 -17 -18 -18 -19 -19 -20 -20 -19 -19 -18 -18 -19 -18 -17 -18 -19 -19 -19 -19 -19 -19 -20 -20 -20 -20 -20 -21 -21 -21 -21 -22 -22
-20 -20 -20 -20 -20 -19 -19 -19 -18 -18 -18 -18 -18 -19 -19 -19 -19 -20 -19 -20 -19 -19 -18 -18 -18 -18 -19 -19 -19 -19 -19 -19 -19 -20 -20 -20 -20 -21 -21 -22 -22 -22 -23 -23
-20 -20 -20 -20 -20 -20 -19 -18 -18 -18 -18 -18 -18 -19 -19 -19 -20 -20 -20 -20 -20 -20 -19 -19 -18 -19 -19 -19 -19 -19 -19 -19 -20 -20 -20 -21 -21 -22 -22 -23 -23 -24 -24 -24
-20 -20 -20 -20 -20 -19 -19 -19 -19 -19 -19 -19 -19 -19 -19 -19 -20 -20 -20 -20 -20 -20 -20 -19 -20 -20 -20 -20 -19 -20 -20 -20 -20 -21 -21 -22 -23 -23 -24 -24 -24 -24 -25 -25
-20 -20 -21 -20 -20 -20 -20 -20 -20 -20 -19 -19 -19 -19 -19 -19 -20 -20 -21 -21 -21 -21 -21 -20 -20 -21 -21 -21 -21 -21 -22 -22 -22 -22 -23 -24 -24 -24 -24 -25 -25 -25 -25 -26
-21 -21 -21 -21 -21 -21 -21 -21 -20 -20 -20 -20 -20 -20 -20 -21 -20 -20 -21 -21 -22 -22 -22 -22 -22 -22 -22 -22 -22 -23 -24 -24 -24 -24 -24 -24 -25 -25 -25 -26 -26 -27 -27 -28
-22 -23 -23 -23 -23 -23 -22 -22 -22 -22 -22 -22 -21 -21 -21 -22 -22 -22 -22 -22 -22 -23 -23 -23 -23 -23 -24 -24 -24 -25 -24 -24 -25 -25 -25 -25 -26 -27 -27 -27 -28 -28 -29 -29

GFSNW_500_temp_021.txt.gz
Temp
-17 -16 -16 -15 -15 -15 -15 -15 -15 -15 -15 -15 -15 -15 -15 -15 -15 -15 -15 -15 -15 -15 -15 -15 -15 -15 -15 -15 -15 -15 -15 -15 -15 -15 -15 -15 -15 -14 -14 -14 -14 -14 -14 -14
-17 -16 -16 -15 -15 -15 -15 -15 -15 -15 -15 -15 -15 -15 -15 -15 -15 -15 -15 -15 -15 -15 -15 -15 -15 -15 -15 -15 -15 -15 -15 -15 -15 -15 -15 -15 -15 -14 -14 -14 -14 -14 -14 -14
-17 -16 -16 -15 -15 -15 -16 -15 -15 -15 -15 -15 -15 -14 -15 -15 -15 -15 -15 -15 -15 -15 -15 -15 -15 -15 -15 -15 -15 -15 -15 -15 -15 -15 -15 -15 -15 -15 -15 -14 -14 -14 -15 -15
-17 -17 -15 -16 -15 -15 -15 -15 -15 -15 -15 -15 -15 -14 -15 -15 -15 -15 -14 -14 -14 -14 -15 -15 -15 -15 -15 -15 -15 -15 -15 -15 -15 -15 -15 -15 -15 -15 -15 -15 -15 -15 -15 -15
-17 -16 -16 -16 -15 -15 -15 -15 -15 -15 -15 -15 -15 -14 -14 -15 -15 -15 -14 -14 -14 -15 -15 -15 -15 -15 -15 -15 -15 -15 -15 -15 -15 -15 -15 -15 -15 -15 -15 -15 -15 -15 -15 -15
-17 -16 -16 -16 -15 -15 -15 -15 -15 -15 -15 -15 -14 -14 -15 -15 -15 -14 -14 -14 -14 -15 -15 -15 -15 -15 -15 -15 -15 -15 -15 -15 -15 -15 -15 -15 -15 -15 -15 -15 -15 -15 -15 -16
-17 -16 -16 -16 -16 -15 -15 -15 -15 -15 -15 -15 -15 -15 -15 -15 -15 -14 -14 -14 -14 -15 -15 -14 -15 -15 -15 -15 -15 -15 -15 -15 -15 -15 -15 -15 -15 -15 -15 -15 -16 -16 -16 -16
-17 -17 -16 -16 -16 -15 -15 -15 -15 -15 -15 -15 -15 -15 -14 -14 -14 -14 -14 -14 -14 -14 -14 -14 -15 -15 -15 -15 -15 -15 -15 -16 -16 -16 -15 -15 -15 -15 -16 -16 -16 -16 -16 -16
-17 -17 -16 -16 -16 -15 -15 -15 -15 -15 -15 -15 -15 -15 -14 -14 -14 -14 -14 -14 -14 -14 -14 -14 -14 -14 -15 -15 -15 -15 -16 -16 -16 -16 -16 -15 -15 -16 -16 -16 -16 -16 -16 -16
-17 -17 -17 -16 -16 -16 -16 -15 -15 -15 -15 -15 -15 -15 -14 -14 -14 -14 -14 -14 -14 -14 -14 -14 -14 -14 -14 -15 -15 -15 -16 -16 -16 -16 -16 -15 -16 -16 -16 -16 -16 -16 -16 -16
-18 -18 -17 -17 -17 -16 -16 -15 -15 -15 -15 -15 -15 -15 -15 -15 -14 -14 -14 -14 -14 -14 -14 -14 -14 -14 -14 -14 -15 -15 -15 -16 -16 -16 -16 -15 -16 -16 -16 -17 -17 -17 -17 -16
-19 -18 -18 -17 -17 -17 -16 -16 -15 -15 -15 -15 -15 -15 -15 -15 -15 -15 -14 -14 -14 -14 -14 -14 -14 -14 -14 -15 -15 -16 -16 -16 -16 -17 -17 -17 -17 -16 -17 -16 -17 -17 -16 -17
-19 -19 -19 -18 -17 -17 -16 -16 -16 -15 -15 -15 -15 -15 -15 -15 -15 -15 -15 -15 -15 -14 -14 -15 -15 -15 -15 -15 -15 -16 -16 -17 -17 -17 -17 -17 -17 -17 -17 -17 -16 -17 -17 -17
-19 -19 -19 -19 -18 -18 -17 -17 -16 -16 -16 -16 -15 -15 -15 -15 -15 -15 -15 -15 -15 -15 -15 -15 -16 -16 -16 -16 -16 -16 -17 -17 -17 -17 -17 -17 -17 -17 -17 -17 -17 -17 -17 -18
-19 -19 -19 -19 -19 -18 -18 -17 -17 -17 -16 -16 -16 -15 -15 -15 -15 -16 -16 -16 -16 -16 -16 -17 -17 -16 -16 -16 -16 -16 -17 -18 -18 -17 -17 -17 -17 -17 -17 -17 -17 -18 -18 -19
-19 -19 -19 -19 -19 -19 -18 -18 -18 -17 -17 -17 -16 -16 -16 -16 -16 -16 -17 -17 -17 -17 -17 -17 -16 -17 -17 -16 -16 -17 -19 -18 -18 -17 -17 -18 -18 -18 -18 -18 -19 -19 -19 -19
-19 -19 -19 -19 -19 -19 -18 -18 -18 -18 -18 -17 -17 -17 -17 -17 -17 -17 -17 -17 -17 -17 -17 -17 -17 -17 -17 -16 -16 -19 -18 -18 -18 -18 -18 -18 -19 -18 -19 -19 -19 -20 -19 -20
-19 -19 -19 -19 -19 -19 -19 -19 -18 -18 -18 -18 -17 -17 -18 -18 -18 -18 -18 -18 -18 -17 -17 -17 -18 -17 -17 -16 -18 -18 -18 -18 -19 -19 -19 -19 -19 -19 -19 -20 -20 -20 -20 -20
-19 -19 -19 -19 -19 -19 -19 -19 -19 -18 -18 -17 -17 -18 -18 -18 -19 -19 -19 -19 -18 -18 -18 -18 -18 -17 -17 -18 -18 -18 -19 -19 -19 -19 -19 -19 -19 -19 -20 -20 -20 -20 -20 -20
-20 -20 -19 -19 -19 -19 -19 -19 -19 -18 -18 -17 -17 -18 -18 -18 -19 -19 -19 -19 -18 -18 -18 -18 -18 -17 -18 -19 -19 -19 -19 -19 -19 -19 -19 -19 -19 -20 -20 -20 -20 -21 -21 -21
-20 -20 -20 -20 -20 -19 -19 -19 -18 -18 -18 -18 -18 -19 -19 -19 -19 -19 -19 -19 -19 -18 -18 -18 -18 -17 -18 -19 -19 -19 -19 -19 -20 -20 -20 -19 -20 -20 -20 -21 -21 -21 -22 -22
-20 -20 -20 -20 -20 -19 -19 -18 -18 -18 -18 -18 -19 -19 -19 -19 -19 -19 -19 -19 -19 -18 -18 -18 -18 -18 -18 -19 -19 -19 -19 -19 -20 -20 -20 -20 -20 -21 -22 -22 -22 -23 -23 -23
-20 -20 -20 -20 -20 -19 -19 -18 -18 -19 -19 -19 -20 -20 -20 -19 -20 -20 -20 -20 -20 -19 -19 -19 -18 -19 -19 -19 -19 -19 -19 -19 -20 -20 -20 -21 -21 -22 -22 -23 -23 -24 -24 -24
-20 -20 -20 -20 -20 -19 -19 -19 -19 -19 -19 -20 -20 -20 -20 -20 -20 -20 -20 -20 -20 -20 -19 -19 -19 -19 -19 -19 -20 -20 -20 -21 -21 -21 -21 -22 -23 -23 -24 -24 -24 -25 -25 -26
-20 -20 -20 -20 -20 -20 -20 -20 -20 -20 -20 -20 -20 -20 -20 -20 -20 -20 -20 -20 -20 -20 -20 -20 -20 -20 -21 -21 -21 -21 -22 -22 -23 -23 -24 -24 -24 -25 -25 -25 -25 -26 -26 -26
-20 -20 -20 -20 -20 -20 -20 -20 -20 -20 -20 -20 -20 -20 -20 -20 -20 -20 -21 -21 -21 -21 -22 -22 -22 -22 -23 -23 -23 -23 -23 -24 -25 -25 -25 -25 -26 -26 -26 -26 -26 -26 -27 -28
-20 -21 -21 -20 -21 -20 -21 -20 -21 -21 -21 -21 -21 -21 -22 -22 -22 -22 -22 -23 -23 -24 -24 -24 -24 -24 -24 -24 -24 -25 -25 -25 -25 -25 -25 -26 -26 -26 -27 -27 -28 -28 -28 -29

GFSNW_500_temp_024.txt.gz
Temp
-18 -17 -16 -16 -15 -15 -15 -15 -15 -15 -15 -15 -15 -15 -16 -15 -15 -15 -15 -15 -15 -15 -15 -15 -15 -15 -15 -15 -15 -16 -15 -15 -15 -15 -15 -15 -15 -15 -15 -15 -15 -15 -14 -14
-18 -18 -17 -16 -15 -16 -16 -15 -15 -15 -15 -15 -15 -15 -15 -15 -15 -15 -15 -15 -15 -15 -15 -15 -15 -15 -15 -15 -15 -15 -15 -15 -15 -15 -15 -15 -15 -15 -15 -15 -15 -15 -14 -14
-18 -18 -17 -16 -16 -16 -16 -16 -15 -15 -15 -15 -15 -15 -15 -15 -15 -15 -15 -15 -15 -16 -16 -15 -15 -15 -15 -15 -15 -15 -15 -15 -15 -15 -15 -15 -15 -15 -15 -15 -15 -15 -15 -14
-18 -18 -17 -16 -16 -16 -16 -15 -15 -15 -15 -15 -15 -15 -15 -15 -15 -15 -15 -15 -15 -15 -15 -16 -16 -15 -15 -15 -15 -15 -15 -15 -15 -15 -15 -15 -15 -15 -15 -15 -15 -15 -15 -15
-18 -18 -17 -17 -16 -16 -16 -15 -15 -15 -15 -15 -15 -15 -15 -15 -15 -15 -15 -15 -15 -15 -15 -15 -15 -15 -15 -15 -15 -15 -15 -15 -15 -15 -15 -15 -15 -15 -15 -15 -15 -15 -15 -15
-18 -18 -17 -17 -16 -16 -16 -15 -15 -15 -15 -15 -15 -15 -15 -15 -15 -15 -15 -15 -15 -15 -15 -15 -15 -15 -15 -15 -15 -15 -15 -15 -15 -15 -15 -15 -15 -15 -15 -15 -15 -15 -15 -15
-18 -18 -18 -17 -17 -16 -16 -16 -16 -15 -15 -15 -15 -15 -15 -15 -15 -15 -15 -15 -15 -15 -15 -15 -15 -15 -15 -15 -15 -15 -15 -15 -15 -15 -15 -15 -15 -15 -15 -16 -16 -16 -16 -16
-18 -18 -17 -17 -17 -16 -16 -16 -16 -16 -15 -16 -15 -15 -15 -15 -15 -15 -15 -15 -15 -15 -14 -14 -14 -15 -15 -15 -15 -15 -15 -15 -15 -15 -15 -15 -15 -15 -15 -15 -16 -16 -16 -16
-18 -18 -17 -17 -17 -16 -16 -16 -16 -16 -16 -15 -16 -15 -15 -15 -15 -15 -15 -15 -15 -14 -14 -14 -14 -14 -14 -14 -14 -15 -15 -15 -15 -15 -15 -15 -15 -16 -16 -16 -15 -16 -16 -16
-18 -18 -18 -17 -16 -16 -16 -16 -16 -16 -16 -15 -15 -15 -15 -15 -15 -15 -15 -15 -15 -14 -14 -14 -14 -14 -14 -14 -15 -15 -15 -15 -15 -15 -15 -15 -16 -16 -16 -16 -16 -16 -16 -17
-18 -18 -18 -17 -16 -16 -16 -16 -16 -16 -16 -16 -15 -15 -15 -15 -15 -15 -15 -15 -15 -14 -14 -14 -14 -14 -14 -14 -14 -15 -15 -15 -16 -16 -16 -15 -16 -16 -17 -17 -17 -16 -17 -17
-19 -19 -17 -17 -17 -17 -17 -16 -16 -16 -16 -16 -16 -15 -15 -15 -15 -15 -15 -15 -15 -15 -15 -14 -14 -14 -14 -14 -14 -15 -15 -16 -16 -16 -16 -16 -16 -17 -17 -17 -17 -17 -17 -17
-19 -19 -18 -18 -17 -18 -18 -17 -16 -16 -16 -16 -15 -16 -15 -15 -15 -15 -15 -15 -15 -15 -15 -15 -14 -14 -14 -14 -14 -15 -16 -16 -16 -16 -17 -17 -17 -17 -17 -17 -17 -17 -18 -18
-18 -19 -18 -18 -18 -19 -18 -18 -17 -16 -16 -16 -16 -16 -15 -15 -15 -15 -15 -15 -15 -15 -15 -15 -15 -15 -14 -14 -15 -15 -16 -17 -17 -17 -18 -17 -17 -17 -17 -17 -18 -18 -18 -18
-19 -19 -19 -19 -19 -18 -18 -17 -17 -17 -16 -16 -16 -16 -16 -16 -15 -15 -15 -15 -15 -15 -15 -15 -15 -15 -15 -15 -15 -16 -17 -18 -18 -17 -17 -17 -17 -18 -18 -18 -18 -18 -18 -19
-19 -19 -20 -19 -19 -19 -18 -18 -18 -18 -17 -17 -17 -16 -16 -16 -16 -16 -16 -16 -16 -16 -16 -16 -16 -16 -16 -15 -15 -18 -18 -18 -18 -17 -18 -18 -18 -18 -18 -18 -19 -19 -19 -19
-20 -20 -20 -20 -20 -19 -19 -18 -18 -18 -18 -17 -17 -17 -17 -17 -17 -17 -17 -17 -17 -17 -17 -16 -17 -17 -17 -16 -16 -19 -18 -18 -18 -18 -18 -18 -19 -19 -19 -19 -19 -19 -19 -20
-20 -20 -20 -20 -20 -20 -19 -19 -19 -19 -18 -18 -17 -18 -18 -18 -18 -18 -18 -18 -17 -17 -17 -17 -17 -17 -17 -16 -18 -18 -19 -19 -19 -19 -19 -19 -19 -19 -19 -19 -20 -20 -20 -20
-20 -20 -20 -20 -19 -19 -19 -19 -19 -19 -19 -18 -18 -18 -19 -19 -19 -19 -19 -18 -18 -17 -17 -18 -18 -17 -17 -17 -18 -19 -19 -19 -19 -19 -19 -19 -19 -19 -20 -20 -20 -20 -20 -21
-20 -20 -20 -20 -20 -20 -20 -19 -19 -19 -18 -18 -18 -19 -19 -19 -19 -19 -19 -18 -18 -17 -18 -18 -17 -17 -18 -19 -19 -19 -19 -19 -19 -19 -19 -20 -20 -20 -20 -20 -20 -20 -20 -21
-20 -20 -20 -20 -20 -20 -20 -19 -19 -19 -18 -18 -19 -19 -19 -20 -19 -19 -19 -18 -18 -18 -18 -18 -18 -18 -19 -19 -19 -19 -19 -19 -20 -20 -20 -20 -20 -20 -20 -20 -21 -21 -22 -22
-20 -20 -20 -20 -20 -20 -19 -19 -19 -18 -18 -18 -19 -20 -20 -19 -19 -19 -19 -19 -19 -18 -18 -18 -18 -18 -19 -19 -19 -19 -19 -19 -19 -20 -20 -20 -21 -21 -21 -21 -22 -23 -23 -23
-20 -20 -20 -20 -20 -20 -19 -19 -19 -19 -19 -20 -20 -20 -20 -20 -20 -20 -20 -20 -19 -19 -19 -19 -18 -19 -19 -19 -19 -19 -20 -20 -19 -19 -19 -20 -20 -21 -22 -23 -24 -24 -24 -24
-20 -20 -20 -20 -20 -19 -19 -20 -20 -20 -20 -20 -20 -20 -20 -20 -20 -20 -20 -20 -20 -20 -19 -19 -20 -20 -20 -20 -20 -20 -20 -20 -20 -21 -22 -22 -23 -24 -24 -25 -25 -24 -25 -25
-20 -20 -20 -20 -20 -19 -20 -20 -20 -20 -20 -20 -20 -20 -20 -20 -20 -20 -20 -20 -20 -20 -21 -21 -20 -21 -21 -21 -21 -21 -22 -22 -22 -23 -23 -24 -24 -24 -25 -25 -26 -27 -27 -27
-20 -20 -20 -20 -20 -20 -20 -20 -20 -20 -20 -20 -20 -20 -20 -21 -21 -20 -21 -21 -21 -21 -21 -22 -22 -22 -22 -23 -23 -24 -24 -24 -24 -24 -25 -26 -26 -26 -27 -27 -27 -27 -28 -28
-20 -20 -21 -21 -21 -21 -21 -20 -20 -20 -20 -21 -21 -21 -21 -21 -21 -22 -22 -23 -23 -23 -23 -23 -24 -24 -24 -25 -25 -25 -25 -26 -26 -26 -26 -26 -27 -28 -29 -29 -29 -29 -29 -29

GFSNW_500_temp_027.txt.gz
Temp
-18 -17 -17 -16 -15 -15 -15 -15 -15 -15 -16 -16 -16 -16 -16 -16 -16 -16 -15 -15 -15 -15 -16 -16 -16 -16 -16 -16 -16 -16 -16 -16 -16 -15 -15 -15 -15 -15 -15 -15 -15 -15 -15 -15
-19 -18 -18 -18 -16 -16 -16 -15 -15 -16 -16 -15 -16 -15 -16 -16 -15 -15 -15 -15 -15 -15 -16 -16 -16 -16 -16 -16 -16 -16 -16 -16 -15 -15 -15 -15 -15 -15 -15 -15 -15 -15 -15 -15
-19 -19 -19 -18 -17 -17 -16 -16 -16 -16 -15 -16 -16 -15 -16 -16 -15 -16 -15 -15 -15 -15 -15 -15 -15 -15 -15 -15 -16 -16 -16 -15 -15 -15 -15 -15 -15 -15 -15 -15 -15 -15 -15 -15
-19 -19 -19 -18 -18 -17 -16 -16 -16 -15 -15 -15 -15 -15 -16 -16 -15 -15 -15 -15 -16 -16 -16 -16 -15 -15 -15 -15 -15 -15 -15 -15 -15 -15 -15 -15 -15 -15 -15 -15 -15 -15 -15 -15
-19 -19 -19 -19 -18 -18 -17 -16 -16 -16 -16 -16 -15 -15 -16 -16 -16 -16 -15 -15 -16 -16 -16 -16 -15 -15 -15 -15 -15 -15 -15 -15 -15 -15 -15 -15 -15 -15 -15 -15 -15 -15 -15 -15
-19 -19 -19 -18 -18 -17 -17 -16 -16 -16 -16 -15 -15 -15 -16 -16 -16 -15 -15 -15 -16 -15 -15 -15 -15 -15 -15 -15 -15 -15 -15 -15 -15 -15 -15 -15 -14 -15 -15 -15 -15 -16 -15 -16
-18 -18 -18 -18 -18 -17 -17 -16 -17 -16 -16 -16 -15 -15 -16 -16 -16 -15 -15 -16 -15 -15 -15 -15 -15 -15 -15 -15 -15 -15 -15 -15 -15 -15 -15 -14 -15 -15 -15 -15 -16 -16 -16 -16
-19 -19 -19 -18 -18 -18 -17 -17 -17 -16 -16 -16 -16 -15 -15 -16 -16 -16 -16 -15 -15 -15 -15 -15 -15 -15 -15 -15 -15 -15 -15 -15 -15 -15 -15 -14 -15 -15 -15 -15 -15 -16 -16 -16
-19 -19 -19 -19 -19 -18 -17 -17 -17 -16 -16 -16 -16 -16 -15 -16 -16 -16 -15 -15 -15 -15 -15 -15 -15 -14 -15 -15 -15 -15 -15 -15 -15 -15 -15 -14 -15 -15 -15 -16 -15 -16 -16 -16
-19 -19 -19 -19 -19 -18 -18 -17 -17 -16 -16 -16 -16 -16 -16 -16 -16 -16 -16 -15 -15 -15 -15 -15 -15 -15 -15 -14 -15 -15 -15 -15 -15 -15 -15 -15 -15 -16 -16 -16 -15 -16 -16 -16
-19 -19 -19 -19 -18 -18 -18 -17 -17 -17 -16 -16 -16 -16 -16 -16 -16 -16 -16 -15 -15 -15 -15 -15 -15 -15 -15 -15 -15 -15 -15 -15 -15 -16 -15 -15 -16 -16 -16 -16 -16 -16 -17 -17
-19 -19 -18 -19 -18 -18 -18 -17 -17 -16 -16 -16 -16 -16 -16 -16 -16 -16 -16 -15 -15 -15 -15 -15 -15 -15 -15 -15 -15 -15 -15 -15 -15 -15 -16 -16 -16 -16 -16 -16 -17 -17 -17 -18
-19 -19 -18 -18 -18 -18 -18 -18 -17 -17 -16 -16 -16 -16 -16 -16 -16 -16 -16 -15 -16 -16 -15 -15 -15 -15 -15 -15 -15 -15 -15 -15 -15 -16 -17 -16 -16 -16 -16 -17 -17 -17 -18 -18
-19 -19 -19 -19 -18 -18 -18 -18 -17 -17 -17 -16 -16 -16 -16 -16 -16 -16 -16 -16 -16 -15 -15 -15 -15 -15 -15 -15 -15 -15 -16 -16 -16 -16 -16 -16 -17 -17 -17 -17 -18 -18 -18 -18
-19 -19 -19 -19 -19 -18 -18 -18 -17 -18 -17 -17 -17 -16 -16 -16 -16 -16 -16 -16 -16 -15 -15 -15 -15 -15 -15 -15 -15 -16 -17 -17 -16 -16 -17 -17 -17 -18 -18 -18 -18 -18 -18 -18
-19 -19 -19 -19 -18 -18 -18 -18 -18 -18 -17 -17 -17 -17 -17 -16 -16 -16 -16 -16 -16 -16 -16 -15 -15 -16 -16 -15 -16 -18 -18 -17 -18 -17 -17 -18 -18 -18 -18 -19 -19 -19 -19 -19
-19 -20 -20 -19 -19 -19 -19 -19 -19 -18 -18 -18 -18 -17 -17 -17 -17 -17 -17 -16 -16 -16 -16 -16 -16 -17 -17 -16 -17 -18 -18 -18 -18 -18 -18 -18 -18 -18 -19 -19 -19 -19 -19 -20
-19 -20 -20 -20 -20 -20 -20 -19 -19 -19 -18 -18 -18 -18 -18 -18 -18 -17 -17 -17 -17 -17 -17 -17 -17 -17 -17 -17 -18 -18 -18 -19 -19 -19 -19 -19 -19 -19 -19 -19 -19 -19 -19 -20
-20 -20 -20 -20 -20 -20 -20 -20 -20 -19 -19 -19 -19 -19 -19 -19 -19 -19 -18 -18 -18 -18 -17 -18 -18 -17 -17 -18 -18 -18 -18 -19 -19 -19 -20 -20 -19 -19 -19 -19 -20 -20 -20 -20
-20 -20 -20 -20 -20 -20 -20 -20 -19 -19 -19 -19 -19 -20 -20 -20 -19 -19 -19 -19 -18 -18 -18 -18 -18 -18 -18 -19 -19 -19 -19 -20 -20 -20 -20 -20 -20 -20 -20 -20 -20 -21 -21 -21
-20 -20 -20 -20 -20 -20 -20 -20 -20 -20 -20 -20 -20 -20 -20 -20 -20 -20 -19 -19 -18 -18 -18 -18 -18 -18 -19 -19 -19 -19 -20 -20 -20 -20 -20 -20 -20 -20 -20 -20 -21 -21 -22 -22
-20 -20 -20 -20 -20 -20 -20 -20 -20 -20 -20 -20 -20 -20 -20 -20 -20 -19 -19 -19 -19 -18 -19 -19 -19 -19 -20 -20 -20 -20 -20 -20 -20 -20 -20 -20 -21 -21 -21 -21 -21 -22 -23 -24
-20 -20 -20 -20 -20 -20 -20 -20 -20 -20 -20 -20 -20 -20 -20 -19 -20 -19 -19 -19 -19 -19 -19 -19 -20 -20 -20 -20 -20 -20 -20 -20 -20 -20 -20 -20 -21 -22 -22 -23 -24 -25 -25 -25
-20 -20 -20 -20 -20 -20 -20 -20 -20 -20 -20 -20 -20 -20 -20 -20 -20 -20 -20 -20 -20 -20 -20 -20 -20 -20 -20 -20 -20 -20 -20 -20 -21 -21 -22 -22 -23 -24 -24 -24 -25 -25 -26 -26
-21 -21 -20 -20 -20 -20 -20 -20 -21 -21 -21 -21 -21 -21 -21 -21 -20 -20 -20 -20 -20 -20 -20 -20 -20 -21 -21 -21 -21 -22 -22 -23 -23 -23 -23 -24 -25 -25 -26 -27 -27 -27 -28 -28
-21 -21 -20 -20 -20 -20 -20 -21 -21 -21 -21 -21 -21 -21 -21 -21 -21 -21 -21 -21 -21 -21 -21 -21 -21 -22 -22 -23 -23 -23 -23 -24 -25 -26 -26 -26 -27 -27 -27 -28 -28 -29 -29 -29
-21 -21 -21 -20 -20 -20 -20 -20 -20 -21 -21 -21 -21 -21 -21 -21 -21 -21 -22 -22 -22 -22 -22 -23 -23 -23 -24 -24 -24 -25 -25 -26 -26 -26 -26 -26 -28 -28 -29 -29 -29 -29 -29 -29

GFSNW_500_temp_030.txt.gz
Temp
-17 -16 -15 -14 -14 -15 -15 -15 -14 -14 -15 -15 -15 -15 -16 -16 -16 -16 -16 -16 -16 -16 -16 -15 -16 -16 -16 -16 -16 -16 -16 -16 -16 -15 -15 -15 -15 -15 -15 -15 -15 -15 -15 -15
-18 -17 -17 -16 -15 -15 -15 -14 -14 -15 -15 -14 -15 -16 -16 -16 -16 -16 -16 -16 -16 -15 -15 -15 -15 -15 -16 -15 -15 -15 -15 -15 -15 -15 -15 -15 -15 -15 -15 -15 -15 -15 -15 -15
-18 -18 -18 -17 -16 -16 -16 -16 -16 -15 -14 -15 -16 -16 -16 -16 -16 -16 -16 -16 -16 -15 -15 -15 -15 -15 -15 -15 -15 -15 -15 -15 -15 -16 -16 -15 -15 -15 -15 -15 -15 -15 -15 -15
-19 -18 -19 -19 -18 -18 -17 -16 -16 -14 -14 -15 -16 -16 -16 -15 -16 -16 -16 -16 -16 -16 -16 -15 -15 -15 -15 -15 -15 -15 -15 -15 -15 -15 -15 -15 -15 -15 -15 -15 -15 -15 -15 -15
-18 -18 -19 -19 -19 -19 -17 -16 -16 -15 -16 -16 -16 -16 -16 -16 -16 -16 -16 -16 -16 -16 -16 -16 -16 -16 -16 -15 -15 -15 -15 -15 -15 -15 -15 -15 -15 -15 -15 -15 -15 -15 -15 -15
-18 -18 -19 -19 -18 -18 -17 -17 -16 -16 -16 -16 -16 -16 -16 -16 -16 -16 -16 -16 -16 -16 -16 -16 -16 -16 -16 -16 -15 -15 -15 -15 -15 -15 -15 -15 -14 -15 -15 -15 -15 -15 -15 -15
-19 -19 -19 -18 -19 -18 -18 -17 -17 -17 -17 -16 -16 -16 -16 -16 -16 -16 -16 -16 -16 -16 -16 -16 -16 -16 -16 -15 -15 -15 -15 -15 -15 -15 -15 -14 -15 -15 -15 -15 -15 -15 -16 -16
-20 -19 -19 -19 -18 -18 -18 -18 -18 -17 -17 -17 -16 -16 -16 -16 -16 -16 -16 -16 -16 -16 -15 -15 -16 -15 -15 -15 -15 -15 -15 -15 -15 -15 -15 -15 -15 -15 -15 -15 -15 -16 -15 -16
-19 -19 -19 -19 -18 -18 -19 -19 -18 -18 -17 -17 -17 -16 -16 -16 -16 -16 -16 -16 -16 -16 -15 -15 -15 -15 -15 -15 -15 -15 -15 -15 -15 -15 -15 -15 -15 -15 -15 -15 -15 -15 -15 -15
-19 -20 -19 -19 -18 -18 -18 -18 -18 -18 -17 -17 -17 -16 -16 -16 -16 -16 -16 -16 -16 -16 -15 -15 -15 -15 -15 -15 -15 -15 -15 -15 -15 -15 -15 -15 -15 -15 -15 -15 -15 -15 -15 -15
-19 -19 -19 -19 -19 -19 -19 -18 -18 -18 -17 -17 -17 -16 -16 -16 -16 -16 -16 -16 -16 -16 -15 -15 -15 -15 -15 -15 -15 -15 -15 -15 -15 -15 -15 -15 -15 -15 -15 -15 -15 -15 -16 -16
-19 -19 -19 -19 -19 -19 -18 -19 -18 -17 -17 -17 -17 -17 -17 -16 -16 -16 -16 -16 -16 -15 -15 -15 -15 -15 -15 -15 -15 -15 -15 -15 -15 -15 -15 -15 -15 -14 -15 -15 -15 -16 -16 -17
-19 -19 -19 -19 -19 -19 -19 -19 -18 -17 -17 -17 -17 -17 -17 -16 -16 -16 -16 -16 -16 -16 -16 -16 -15 -15 -15 -15 -15 -15 -15 -15 -15 -15 -15 -15 -15 -15 -16 -16 -16 -17 -17 -18
-19 -19 -18 -19 -19 -19 -19 -19 -18 -18 -17 -17 -17 -17 -17 -17 -17 -16 -16 -16 -16 -16 -16 -16 -15 -15 -15 -15 -15 -15 -15 -15 -15 -15 -16 -16 -16 -16 -16 -17 -17 -17 -18 -18
-19 -19 -19 -19 -19 -19 -19 -19 -18 -18 -18 -17 -17 -17 -17 -17 -17 -17 -16 -16 -16 -16 -16 -16 -16 -16 -15 -15 -15 -16 -16 -16 -16 -16 -16 -16 -17 -17 -17 -17 -18 -18 -18 -18
-19 -19 -19 -19 -19 -19 -19 -19 -18 -18 -18 -17 -17 -17 -17 -17 -17 -17 -17 -16 -16 -16 -16 -16 -16 -16 -16 -16 -16 -16 -17 -17 -17 -17 -17 -17 -18 -18 -18 -18 -19 -19 -19 -19
-19 -19 -19 -19 -19 -19 -19 -19 -18 -19 -18 -18 -18 -17 -17 -17 -17 -17 -17 -17 -17 -16 -16 -16 -16 -16 -16 -16 -16 -17 -18 -18 -17 -18 -18 -18 -18 -18 -19 -19 -19 -19 -19 -19
-19 -20 -19 -19 -19 -19 -19 -18 -19 -19 -18 -18 -18 -17 -18 -17 -17 -17 -17 -17 -17 -17 -16 -17 -17 -17 -17 -17 -18 -18 -18 -19 -19 -19 -19 -19 -19 -19 -19 -20 -20 -20 -19 -20
-19 -20 -19 -19 -19 -19 -19 -19 -19 -19 -19 -19 -19 -18 -18 -18 -18 -18 -18 -17 -17 -17 -17 -18 -18 -17 -18 -18 -18 -18 -19 -19 -19 -19 -19 -19 -19 -19 -19 -19 -19 -20 -20 -20
-20 -20 -20 -20 -20 -20 -20 -20 -19 -19 -19 -19 -19 -19 -18 -18 -18 -18 -18 -18 -18 -18 -18 -18 -18 -18 -18 -19 -19 -19 -19 -19 -19 -20 -20 -20 -20 -20 -20 -20 -20 -20 -20 -21
-20 -20 -20 -20 -20 -20 -19 -19 -19 -19 -19 -19 -20 -20 -19 -19 -19 -19 -19 -19 -19 -18 -18 -19 -18 -18 -19 -19 -19 -20 -20 -19 -19 -20 -20 -20 -20 -20 -20 -20 -21 -21 -22 -22
-20 -20 -20 -20 -20 -20 -20 -20 -20 -20 -20 -20 -20 -20 -20 -20 -20 -20 -19 -19 -19 -19 -19 -19 -18 -19 -19 -20 -20 -20 -20 -20 -20 -20 -20 -21 -21 -21 -21 -21 -22 -22 -23 -24
-20 -20 -20 -20 -20 -20 -20 -20 -20 -20 -20 -20 -20 -20 -20 -20 -20 -19 -19 -19 -19 -19 -19 -19 -19 -20 -20 -20 -20 -20 -20 -20 -20 -21 -21 -21 -21 -22 -22 -22 -23 -24 -25 -25
-20 -20 -20 -20 -20 -20 -20 -20 -20 -20 -20 -20 -20 -20 -20 -20 -20 -20 -20 -20 -20 -19 -19 -20 -20 -20 -20 -20 -20 -20 -20 -21 -21 -21 -21 -22 -22 -23 -24 -24 -25 -26 -27 -27
-20 -20 -20 -20 -20 -20 -21 -20 -20 -20 -20 -20 -20 -20 -20 -21 -20 -20 -21 -20 -20 -20 -20 -20 -20 -20 -21 -21 -21 -21 -21 -22 -22 -23 -24 -24 -24 -25 -25 -26 -27 -27 -28 -29
-20 -20 -20 -20 -20 -20 -20 -20 -20 -20 -20 -20 -20 -21 -21 -21 -21 -21 -21 -21 -21 -21 -21 -21 -21 -21 -21 -22 -22 -22 -23 -24 -24 -24 -24 -25 -25 -26 -26 -27 -28 -29 -29 -29
-21 -20 -20 -21 -21 -21 -20 -20 -20 -20 -20 -20 -21 -21 -21 -21 -21 -21 -21 -21 -22 -22 -22 -22 -22 -22 -22 -23 -24 -24 -24 -24 -25 -25 -25 -25 -26 -27 -28 -29 -29 -29 -29 -30

GFSNW_500_temp_033.txt.gz
Temp
-16 -15 -16 -15 -15 -15 -14 -14 -14 -14 -15 -14 -14 -14 -15 -16 -16 -16 -16 -16 -16 -16 -16 -16 -16 -17 -16 -16 -16 -16 -16 -17 -17 -16 -15 -16 -16 -15 -15 -15 -15 -15 -15 -15
-17 -16 -16 -15 -15 -14 -14 -14 -14 -15 -15 -14 -14 -15 -16 -16 -16 -16 -16 -16 -16 -16 -16 -16 -16 -16 -15 -16 -16 -16 -16 -16 -16 -16 -15 -15 -15 -15 -15 -15 -15 -15 -15 -15
-17 -18 -17 -16 -15 -14 -14 -15 -14 -15 -14 -14 -15 -14 -15 -16 -16 -16 -16 -15 -16 -16 -16 -15 -15 -15 -15 -16 -16 -16 -16 -16 -16 -16 -17 -16 -15 -15 -15 -15 -15 -15 -15 -15
-17 -18 -18 -17 -15 -14 -15 -15 -14 -13 -12 -14 -15 -15 -16 -16 -16 -16 -15 -15 -16 -16 -15 -15 -15 -15 -15 -15 -16 -16 -16 -15 -16 -16 -16 -16 -15 -15 -15 -15 -15 -15 -15 -15
-19 -18 -19 -18 -17 -17 -16 -15 -14 -15 -15 -15 -15 -15 -16 -16 -16 -16 -15 -16 -16 -16 -16 -16 -16 -16 -15 -15 -16 -16 -15 -15 -15 -15 -15 -15 -15 -15 -15 -15 -15 -15 -15 -15
-21 -19 -19 -19 -19 -18 -15 -16 -16 -15 -16 -15 -15 -15 -16 -16 -16 -16 -16 -16 -16 -16 -16 -16 -16 -16 -16 -16 -16 -16 -15 -15 -16 -15 -15 -15 -15 -15 -15 -15 -15 -16 -15 -16
-23 -20 -20 -20 -19 -17 -17 -17 -16 -16 -16 -15 -15 -16 -16 -16 -16 -16 -16 -16 -16 -16 -16 -16 -16 -16 -16 -16 -16 -16 -16 -16 -16 -15 -16 -15 -15 -15 -15 -15 -15 -15 -15 -15
-24 -22 -20 -19 -19 -18 -19 -19 -18 -17 -17 -16 -17 -17 -16 -16 -16 -16 -16 -16 -16 -16 -16 -16 -16 -16 -16 -16 -16 -16 -16 -16 -16 -15 -15 -15 -15 -15 -15 -15 -15 -15 -15 -15
-22 -21 -19 -18 -18 -19 -19 -19 -19 -18 -17 -16 -17 -17 -17 -16 -16 -16 -16 -15 -16 -16 -15 -16 -16 -16 -16 -16 -16 -16 -16 -16 -16 -15 -15 -15 -15 -15 -15 -15 -15 -14 -15 -15
-20 -20 -19 -19 -19 -19 -19 -19 -19 -18 -18 -18 -18 -17 -16 -16 -16 -16 -16 -16 -16 -16 -16 -16 -16 -16 -16 -16 -16 -16 -16 -15 -15 -15 -15 -15 -14 -14 -14 -15 -14 -14 -15 -15
-20 -20 -21 -20 -20 -19 -19 -19 -19 -19 -19 -18 -18 -17 -17 -16 -16 -16 -16 -16 -16 -16 -16 -16 -16 -16 -16 -16 -16 -15 -15 -15 -15 -15 -15 -14 -15 -14 -14 -14 -14 -14 -15 -15
-20 -20 -21 -20 -19 -19 -19 -19 -18 -18 -19 -18 -17 -17 -17 -16 -17 -17 -16 -16 -16 -16 -16 -16 -16 -16 -16 -16 -15 -16 -15 -15 -15 -15 -15 -15 -15 -14 -15 -15 -15 -15 -15 -16
-20 -20 -19 -19 -19 -19 -19 -19 -19 -18 -19 -18 -18 -17 -17 -17 -17 -17 -16 -16 -16 -16 -16 -16 -16 -16 -16 -16 -15 -15 -15 -15 -15 -15 -15 -15 -15 -15 -15 -15 -15 -16 -16 -16
-20 -19 -20 -20 -19 -19 -19 -19 -19 -19 -18 -18 -17 -17 -17 -17 -17 -17 -17 -16 -16 -16 -16 -16 -16 -16 -16 -16 -16 -16 -16 -16 -16 -16 -16 -15 -15 -15 -16 -16 -16 -16 -17 -17
-20 -21 -20 -20 -19 -19 -19 -19 -19 -19 -18 -18 -18 -18 -17 -17 -17 -17 -17 -17 -16 -16 -16 -16 -16 -16 -16 -16 -16 -16 -16 -16 -16 -16 -16 -16 -16 -16 -16 -16 -17 -17 -17 -18
-20 -20 -20 -20 -20 -19 -19 -19 -19 -18 -18 -18 -18 -17 -17 -17 -17 -17 -17 -17 -16 -16 -16 -16 -16 -16 -16 -16 -16 -16 -16 -16 -16 -16 -17 -16 -17 -17 -17 -17 -18 -18 -18 -18
-19 -20 -20 -20 -20 -19 -18 -19 -19 -18 -18 -18 -18 -17 -17 -17 -17 -17 -17 -17 -17 -17 -16 -16 -16 -16 -16 -16 -16 -16 -17 -17 -17 -17 -17 -17 -18 -17 -18 -18 -18 -18 -18 -19
-20 -20 -20 -20 -20 -20 -19 -19 -19 -19 -19 -18 -18 -17 -17 -17 -17 -17 -17 -17 -17 -17 -17 -16 -17 -17 -16 -16 -17 -17 -17 -17 -18 -18 -18 -18 -18 -18 -18 -18 -19 -19 -19 -19
-19 -20 -21 -20 -20 -19 -19 -19 -18 -19 -18 -18 -18 -18 -17 -17 -17 -17 -17 -17 -17 -17 -17 -17 -17 -17 -16 -17 -18 -18 -18 -18 -18 -18 -18 -19 -19 -19 -19 -19 -19 -19 -20 -20
-20 -21 -20 -20 -19 -20 -19 -19 -19 -18 -18 -18 -18 -18 -18 -18 -18 -18 -18 -18 -18 -17 -17 -17 -17 -17 -18 -19 -19 -19 -19 -19 -19 -18 -18 -19 -19 -19 -20 -20 -20 -20 -21 -21
-20 -20 -19 -19 -19 -19 -19 -19 -19 -18 -18 -18 -18 -18 -18 -18 -18 -18 -18 -18 -18 -17 -18 -18 -17 -18 -19 -19 -19 -19 -19 -19 -19 -19 -19 -20 -20 -20 -20 -20 -21 -21 -21 -22
-20 -19 -19 -19 -20 -19 -19 -19 -19 -19 -19 -19 -19 -19 -19 -19 -19 -19 -19 -19 -19 -18 -19 -19 -18 -19 -19 -19 -19 -20 -19 -19 -20 -20 -20 -20 -20 -20 -21 -21 -22 -22 -22 -23
-19 -19 -19 -19 -20 -20 -19 -19 -19 -19 -19 -20 -20 -19 -19 -20 -20 -20 -20 -20 -19 -19 -19 -19 -18 -19 -19 -19 -19 -20 -20 -20 -20 -21 -21 -21 -21 -22 -22 -22 -23 -23 -23 -24
-19 -20 -20 -20 -20 -20 -20 -20 -20 -20 -20 -20 -20 -20 -20 -20 -20 -20 -20 -20 -19 -19 -19 -19 -20 -20 -20 -20 -20 -20 -21 -21 -21 -21 -21 -22 -22 -23 -23 -23 -24 -24 -25 -25
-20 -20 -20 -20 -20 -20 -20 -20 -20 -20 -20 -20 -20 -20 -20 -20 -20 -20 -20 -20 -19 -19 -19 -20 -20 -21 -21 -21 -21 -21 -21 -21 -21 -22 -22 -23 -24 -24 -24 -24 -25 -25 -26 -26
-20 -20 -20 -20 -20 -20 -20 -20 -20 -20 -20 -20 -20 -20 -20 -20 -20 -20 -20 -20 -20 -20 -20 -21 -21 -21 -21 -21 -21 -21 -22 -22 -22 -23 -24 -24 -24 -24 -25 -25 -25 -26 -27 -28
-20 -20 -20 -20 -20 -20 -20 -20 -20 -20 -20 -20 -20 -20 -20 -20 -20 -20 -21 -21 -21 -21 -21 -21 -21 -21 -22 -22 -22 -22 -23 -23 -24 -24 -24 -24 -25 -25 -25 -26 -26 -27 -28 -29

GFSNW_500_temp_036.txt.gz
Temp
-16 -16 -16 -16 -16 -16 -16 -15 -15 -16 -15 -14 -13 -13 -14 -14 -15 -15 -16 -16 -18 -17 -17 -17 -17 -17 -17 -16 -16 -16 -16 -16 -17 -16 -16 -16 -16 -16 -16 -15 -16 -15 -15 -15
-16 -16 -16 -16 -16 -16 -16 -15 -16 -16 -16 -14 -13 -14 -14 -15 -15 -15 -16 -16 -16 -16 -16 -17 -17 -17 -16 -16 -16 -16 -16 -16 -16 -16 -16 -16 -16 -16 -16 -16 -15 -15 -15 -15
-17 -17 -16 -16 -16 -16 -16 -16 -16 -16 -15 -14 -13 -15 -15 -15 -15 -16 -16 -16 -16 -16 -16 -15 -16 -16 -15 -16 -16 -16 -16 -16 -16 -16 -17 -16 -16 -16 -16 -16 -15 -15 -15 -15
-18 -17 -18 -17 -16 -17 -16 -16 -15 -15 -14 -13 -13 -15 -15 -15 -15 -15 -16 -16 -16 -16 -16 -16 -16 -16 -15 -16 -16 -16 -16 -16 -16 -16 -16 -16 -17 -16 -16 -16 -15 -15 -15 -15
-20 -18 -18 -18 -18 -18 -17 -14 -15 -15 -15 -14 -15 -15 -15 -15 -15 -16 -16 -16 -16 -16 -16 -16 -15 -16 -15 -15 -15 -16 -16 -16 -16 -15 -16 -16 -16 -15 -16 -15 -15 -15 -15 -15
-22 -20 -18 -18 -19 -20 -16 -14 -15 -15 -15 -15 -15 -15 -15 -15 -15 -16 -16 -16 -16 -16 -17 -15 -15 -16 -15 -15 -15 -15 -15 -16 -15 -15 -15 -15 -15 -16 -16 -15 -15 -15 -15 -15
-24 -22 -20 -19 -19 -19 -15 -14 -16 -15 -15 -15 -14 -16 -16 -15 -16 -18 -17 -16 -16 -16 -15 -15 -16 -16 -16 -16 -16 -16 -16 -16 -15 -15 -16 -15 -15 -15 -15 -15 -15 -15 -15 -15
-25 -23 -21 -20 -20 -18 -16 -17 -17 -17 -15 -16 -17 -16 -16 -16 -17 -16 -17 -16 -16 -16 -16 -16 -16 -16 -16 -16 -16 -16 -16 -16 -16 -16 -16 -15 -15 -15 -16 -16 -16 -15 -15 -15
-26 -23 -22 -21 -20 -18 -19 -19 -17 -16 -17 -16 -16 -16 -17 -17 -16 -16 -16 -17 -16 -16 -16 -16 -16 -16 -16 -16 -16 -16 -16 -16 -16 -16 -16 -16 -15 -15 -15 -15 -15 -15 -15 -15
-27 -23 -23 -21 -20 -19 -19 -19 -18 -16 -17 -17 -17 -17 -16 -17 -17 -14 -16 -16 -16 -16 -16 -16 -16 -16 -16 -15 -16 -16 -16 -16 -16 -16 -15 -15 -15 -15 -15 -15 -15 -15 -14 -15
-25 -23 -23 -22 -21 -20 -19 -19 -19 -18 -17 -17 -18 -18 -18 -18 -16 -15 -16 -16 -16 -16 -16 -16 -16 -16 -16 -16 -16 -16 -16 -15 -15 -15 -15 -15 -15 -15 -15 -15 -15 -15 -15 -15
-23 -22 -21 -21 -20 -19 -19 -18 -18 -17 -17 -17 -17 -17 -17 -17 -17 -16 -16 -16 -16 -16 -16 -16 -16 -16 -16 -16 -15 -15 -15 -15 -15 -15 -15 -15 -15 -15 -15 -14 -15 -15 -15 -15
-22 -21 -21 -20 -20 -19 -18 -18 -16 -15 -16 -18 -18 -17 -17 -17 -17 -16 -17 -16 -16 -16 -16 -16 -16 -16 -16 -16 -16 -15 -15 -15 -15 -15 -16 -15 -15 -15 -14 -15 -15 -15 -15 -15
-21 -20 -21 -20 -19 -19 -19 -17 -18 -18 -19 -19 -18 -17 -17 -18 -17 -16 -17 -17 -17 -17 -16 -16 -16 -16 -15 -16 -16 -15 -15 -15 -16 -16 -16 -16 -15 -14 -15 -15 -15 -16 -16 -16
-20 -20 -20 -20 -19 -18 -19 -18 -18 -18 -19 -18 -18 -18 -18 -18 -17 -17 -17 -17 -17 -17 -16 -16 -16 -16 -16 -16 -16 -15 -15 -16 -16 -16 -15 -16 -15 -15 -15 -16 -16 -16 -17 -17
-20 -20 -20 -20 -20 -18 -18 -19 -19 -19 -18 -18 -18 -18 -18 -18 -18 -17 -17 -18 -17 -17 -16 -16 -16 -16 -16 -16 -16 -16 -16 -16 -16 -16 -16 -16 -16 -16 -17 -16 -17 -17 -18 -18
-20 -20 -20 -20 -20 -19 -19 -18 -19 -19 -19 -19 -18 -18 -18 -18 -18 -17 -17 -17 -17 -17 -17 -17 -16 -16 -16 -16 -16 -16 -16 -16 -16 -17 -16 -16 -16 -17 -17 -18 -18 -18 -18 -18
-20 -20 -20 -19 -19 -19 -19 -19 -19 -19 -19 -18 -18 -18 -18 -18 -17 -17 -17 -17 -17 -17 -17 -17 -17 -16 -16 -16 -16 -16 -16 -17 -17 -17 -17 -17 -17 -17 -18 -18 -18 -18 -19 -19
-20 -20 -20 -20 -19 -19 -19 -19 -19 -19 -19 -18 -18 -18 -18 -18 -17 -17 -17 -17 -17 -17 -17 -17 -17 -16 -16 -16 -17 -17 -17 -17 -17 -17 -18 -18 -18 -18 -18 -18 -19 -19 -19 -20
-20 -20 -20 -20 -19 -19 -19 -19 -20 -19 -18 -19 -18 -18 -18 -18 -17 -17 -17 -17 -17 -17 -17 -17 -17 -17 -17 -17 -18 -18 -18 -18 -18 -18 -18 -19 -19 -19 -19 -19 -19 -20 -20 -20
-20 -20 -20 -20 -20 -20 -20 -19 -19 -19 -18 -19 -18 -19 -18 -18 -18 -18 -18 -18 -17 -17 -17 -17 -17 -17 -18 -18 -18 -19 -19 -19 -19 -19 -19 -19 -19 -19 -20 -20 -20 -21 -21 -21
-20 -20 -20 -20 -20 -20 -20 -19 -19 -19 -19 -18 -18 -19 -19 -18 -18 -18 -18 -18 -18 -17 -17 -17 -17 -17 -19 -19 -19 -19 -19 -19 -19 -19 -19 -20 -20 -20 -20 -21 -21 -21 -21 -22
-20 -20 -20 -20 -20 -20 -19 -20 -19 -19 -19 -19 -19 -19 -19 -19 -19 -19 -19 -18 -18 -18 -18 -18 -17 -19 -19 -20 -20 -20 -20 -19 -20 -20 -20 -20 -21 -21 -21 -21 -21 -22 -22 -23
-20 -20 -20 -20 -20 -20 -19 -19 -19 -19 -19 -19 -19 -20 -20 -19 -19 -19 -19 -19 -19 -19 -18 -18 -19 -20 -20 -20 -20 -20 -20 -20 -20 -21 -21 -21 -21 -21 -22 -22 -22 -23 -24 -24
-20 -20 -20 -20 -19 -19 -19 -19 -19 -20 -20 -20 -20 -20 -20 -20 -20 -20 -20 -20 -20 -19 -19 -20 -20 -20 -20 -20 -20 -21 -21 -21 -21 -21 -21 -22 -22 -22 -23 -23 -24 -24 -24 -24
-20 -19 -19 -19 -20 -20 -20 -20 -20 -20 -20 -20 -20 -20 -20 -20 -20 -20 -20 -20 -20 -19 -20 -20 -20 -21 -21 -21 -21 -21 -21 -22 -22 -22 -22 -22 -23 -23 -24 -24 -24 -24 -25 -25
-20 -20 -19 -20 -20 -20 -20 -20 -20 -20 -20 -20 -20 -20 -20 -20 -20 -20 -20 -20 -20 -20 -21 -21 -21 -21 -21 -21 -22 -22 -22 -22 -22 -23 -23 -24 -24 -24 -24 -24 -25 -25 -25 -26

GFSNW_500_temp_039.txt.gz
Temp
-16 -17 -16 -16 -17 -17 -17 -17 -16 -16 -17 -16 -15 -13 -13 -15 -16 -15 -15 -14 -15 -16 -16 -17 -17 -17 -17 -17 -17 -17 -16 -17 -16 -16 -15 -16 -16 -16 -16 -15 -16 -15 -15 -16
-16 -17 -17 -17 -17 -17 -17 -16 -16 -16 -17 -16 -14 -14 -14 -16 -16 -15 -15 -15 -16 -16 -17 -16 -16 -17 -17 -17 -17 -16 -17 -16 -16 -16 -16 -16 -16 -16 -16 -16 -15 -15 -15 -16
-17 -17 -17 -17 -17 -17 -17 -17 -16 -16 -17 -15 -14 -14 -14 -15 -16 -15 -15 -15 -16 -16 -16 -17 -16 -17 -16 -16 -16 -16 -16 -16 -16 -16 -16 -16 -16 -16 -16 -16 -16 -15 -16 -16
-19 -17 -17 -17 -18 -18 -18 -17 -16 -15 -15 -15 -14 -14 -15 -16 -15 -15 -15 -15 -16 -16 -16 -17 -16 -16 -16 -15 -15 -16 -16 -16 -16 -16 -16 -15 -16 -16 -16 -16 -16 -15 -16 -16
-21 -20 -18 -18 -18 -19 -19 -17 -15 -15 -15 -15 -14 -14 -14 -15 -16 -16 -16 -15 -16 -16 -16 -16 -16 -16 -16 -15 -16 -15 -16 -15 -16 -15 -16 -16 -16 -16 -16 -16 -16 -16 -16 -16
-23 -22 -21 -18 -19 -19 -18 -16 -15 -15 -16 -15 -15 -13 -15 -15 -16 -16 -16 -16 -16 -16 -16 -16 -16 -16 -16 -15 -15 -15 -15 -15 -15 -15 -16 -16 -15 -16 -16 -16 -17 -16 -16 -16
-24 -23 -22 -20 -19 -20 -17 -16 -16 -15 -15 -15 -14 -15 -16 -16 -16 -16 -16 -16 -17 -16 -16 -17 -16 -16 -15 -15 -15 -16 -15 -15 -15 -15 -16 -15 -16 -15 -16 -16 -16 -16 -16 -15
-24 -23 -22 -22 -20 -20 -18 -17 -16 -15 -16 -15 -15 -16 -16 -17 -17 -16 -16 -17 -17 -17 -16 -16 -16 -16 -16 -15 -15 -15 -16 -16 -16 -15 -15 -15 -15 -15 -16 -16 -16 -16 -16 -16
-24 -24 -23 -22 -21 -20 -18 -18 -16 -18 -17 -15 -15 -17 -17 -17 -17 -17 -15 -16 -17 -17 -17 -16 -16 -16 -16 -15 -15 -16 -16 -16 -16 -16 -16 -16 -16 -16 -16 -16 -16 -16 -15 -16
-25 -25 -24 -22 -22 -20 -19 -18 -17 -16 -17 -16 -17 -16 -16 -16 -17 -16 -16 -16 -17 -17 -16 -16 -16 -16 -16 -15 -15 -16 -16 -16 -16 -16 -16 -16 -15 -16 -16 -16 -15 -15 -15 -15
-28 -27 -25 -22 -22 -20 -20 -19 -17 -17 -17 -18 -18 -18 -18 -18 -16 -15 -16 -17 -16 -17 -16 -16 -16 -16 -16 -16 -16 -16 -16 -16 -16 -16 -16 -15 -15 -15 -15 -15 -15 -15 -15 -15
-28 -28 -25 -22 -22 -21 -21 -21 -18 -19 -17 -18 -18 -18 -17 -16 -16 -16 -16 -16 -17 -17 -16 -16 -16 -16 -16 -16 -16 -16 -16 -16 -15 -16 -15 -15 -15 -15 -15 -15 -16 -15 -15 -15
-28 -28 -24 -22 -22 -22 -21 -20 -19 -17 -18 -18 -17 -17 -17 -17 -16 -16 -16 -16 -17 -17 -17 -16 -16 -16 -16 -16 -16 -16 -16 -16 -16 -16 -15 -15 -15 -15 -15 -16 -15 -15 -15 -15
-28 -25 -22 -22 -23 -23 -20 -19 -18 -18 -16 -17 -17 -17 -16 -16 -16 -17 -17 -17 -17 -18 -17 -17 -16 -16 -16 -16 -16 -16 -16 -16 -16 -16 -15 -15 -15 -15 -15 -15 -15 -15 -15 -16
-25 -23 -21 -23 -23 -21 -20 -20 -19 -18 -18 -17 -16 -18 -17 -17 -17 -17 -18 -17 -18 -17 -17 -17 -16 -16 -16 -16 -16 -16 -16 -16 -16 -16 -16 -16 -16 -16 -16 -16 -16 -16 -16 -16
-23 -21 -22 -23 -19 -21 -20 -18 -18 -17 -18 -18 -18 -18 -18 -17 -18 -18 -18 -17 -17 -17 -17 -16 -16 -16 -16 -16 -16 -16 -16 -16 -16 -16 -16 -16 -16 -16 -16 -16 -16 -16 -17 -17
-22 -22 -22 -22 -21 -19 -19 -18 -18 -18 -18 -18 -17 -17 -17 -18 -18 -18 -19 -18 -17 -17 -17 -17 -16 -17 -17 -16 -16 -16 -16 -16 -16 -16 -16 -16 -16 -17 -16 -16 -17 -17 -18 -18
-22 -21 -20 -20 -20 -19 -19 -18 -19 -18 -18 -18 -18 -17 -18 -19 -18 -18 -18 -18 -17 -18 -17 -17 -17 -17 -17 -16 -16 -17 -17 -17 -17 -17 -16 -16 -17 -17 -17 -17 -18 -18 -19 -19
-20 -20 -20 -19 -19 -19 -19 -20 -19 -19 -19 -18 -18 -18 -18 -18 -17 -17 -18 -18 -18 -18 -18 -17 -17 -17 -17 -16 -17 -17 -17 -17 -17 -17 -17 -17 -17 -17 -18 -18 -19 -19 -19 -19
-20 -20 -19 -18 -20 -20 -19 -19 -19 -19 -19 -19 -18 -18 -18 -18 -18 -18 -18 -18 -18 -18 -17 -17 -17 -17 -17 -17 -17 -17 -17 -17 -18 -18 -18 -18 -18 -18 -19 -19 -19 -19 -19 -20
-19 -19 -19 -18 -18 -19 -19 -19 -18 -17 -18 -18 -18 -18 -19 -19 -19 -19 -19 -18 -18 -18 -17 -17 -17 -17 -17 -17 -18 -18 -18 -18 -18 -18 -18 -19 -19 -19 -20 -19 -19 -20 -20 -20
-19 -19 -19 -19 -19 -19 -18 -18 -18 -18 -18 -18 -18 -18 -19 -19 -19 -19 -19 -19 -19 -18 -18 -18 -17 -17 -18 -18 -19 -19 -19 -19 -19 -19 -19 -20 -20 -20 -20 -20 -21 -21 -21 -21
-19 -20 -20 -20 -19 -19 -19 -19 -19 -19 -20 -19 -19 -19 -19 -19 -19 -19 -19 -19 -18 -18 -18 -17 -18 -19 -19 -19 -19 -19 -19 -19 -20 -20 -20 -20 -20 -20 -21 -21 -21 -21 -22 -22
-20 -20 -20 -20 -19 -19 -19 -19 -20 -19 -19 -19 -19 -19 -19 -19 -19 -19 -19 -19 -19 -19 -18 -18 -19 -19 -19 -20 -20 -20 -20 -20 -20 -20 -20 -21 -21 -21 -22 -22 -22 -22 -22 -23
-20 -20 -20 -20 -20 -20 -20 -19 -20 -19 -20 -19 -19 -19 -19 -19 -19 -19 -19 -19 -19 -19 -19 -20 -20 -20 -20 -20 -20 -20 -20 -20 -21 -21 -21 -22 -22 -22 -22 -22 -22 -23 -23 -24
-20 -20 -20 -20 -20 -20 -20 -19 -19 -19 -19 -19 -19 -19 -19 -19 -20 -20 -20 -20 -20 -20 -20 -20 -20 -20 -20 -20 -20 -20 -21 -21 -21 -22 -22 -22 -22 -22 -22 -23 -23 -24 -25 -25
-20 -20 -20 -20 -20 -20 -20 -20 -20 -20 -20 -20 -20 -20 -20 -20 -20 -20 -20 -20 -20 -21 -21 -21 -21 -21 -21 -21 -21 -21 -22 -22 -22 -22 -22 -22 -22 -23 -24 -25 -25 -25 -25 -25

GFSNW_500_temp_042.txt.gz
Temp
-17 -17 -17 -17 -17 -17 -18 -18 -17 -16 -18 -17 -15 -13 -13 -14 -17 -16 -15 -16 -15 -14 -15 -16 -16 -15 -16 -17 -16 -17 -18 -17 -17 -17 -16 -16 -16 -17 -17 -17 -16 -16 -16 -16
-18 -17 -17 -17 -17 -17 -18 -18 -17 -17 -18 -16 -14 -13 -14 -14 -17 -16 -16 -15 -15 -15 -15 -16 -16 -15 -16 -17 -17 -16 -17 -17 -17 -16 -17 -16 -16 -16 -16 -16 -16 -16 -16 -15
-19 -18 -18 -17 -17 -18 -18 -18 -18 -17 -17 -16 -15 -15 -14 -15 -16 -15 -15 -15 -15 -15 -16 -16 -15 -15 -16 -17 -17 -17 -17 -17 -16 -16 -17 -17 -16 -16 -17 -16 -16 -16 -16 -16
-21 -19 -18 -18 -18 -18 -19 -18 -17 -16 -16 -16 -15 -14 -14 -15 -16 -15 -16 -16 -16 -16 -15 -16 -15 -16 -16 -17 -17 -17 -17 -16 -16 -16 -16 -16 -16 -16 -16 -16 -16 -16 -16 -16
-22 -21 -20 -19 -19 -19 -20 -18 -17 -16 -16 -17 -16 -15 -13 -15 -16 -16 -15 -15 -16 -16 -16 -16 -16 -15 -15 -16 -16 -16 -16 -16 -16 -16 -16 -16 -16 -16 -16 -16 -17 -16 -16 -16
-22 -22 -21 -20 -20 -21 -19 -19 -18 -16 -16 -16 -16 -14 -14 -15 -16 -16 -16 -15 -16 -16 -16 -16 -17 -16 -16 -16 -17 -16 -16 -16 -16 -15 -16 -16 -16 -15 -16 -17 -17 -16 -16 -16
-22 -22 -22 -21 -22 -21 -20 -19 -18 -17 -16 -16 -15 -15 -14 -16 -16 -16 -16 -16 -16 -16 -16 -16 -17 -16 -16 -16 -16 -16 -16 -16 -16 -15 -15 -15 -15 -16 -16 -15 -16 -16 -16 -16
-23 -23 -24 -23 -22 -22 -20 -20 -18 -17 -16 -16 -15 -15 -14 -17 -17 -17 -17 -16 -16 -17 -17 -17 -16 -16 -16 -16 -16 -16 -16 -16 -16 -16 -16 -16 -16 -15 -16 -16 -16 -16 -16 -17
-23 -24 -24 -24 -23 -22 -21 -21 -19 -17 -16 -15 -16 -15 -16 -16 -17 -17 -17 -17 -17 -17 -17 -17 -16 -16 -16 -16 -16 -16 -16 -16 -16 -16 -16 -16 -16 -16 -16 -16 -16 -16 -16 -16
-23 -24 -24 -24 -23 -22 -21 -21 -20 -17 -16 -16 -16 -15 -16 -17 -17 -17 -17 -18 -16 -16 -16 -16 -16 -17 -16 -16 -16 -16 -16 -15 -16 -16 -16 -16 -16 -16 -16 -16 -16 -16 -17 -17
-24 -24 -25 -24 -24 -22 -22 -21 -20 -18 -17 -18 -17 -17 -17 -17 -17 -16 -16 -17 -16 -16 -16 -17 -16 -16 -16 -16 -16 -16 -16 -16 -16 -16 -16 -16 -16 -16 -16 -16 -16 -16 -17 -16
-25 -25 -25 -24 -24 -22 -22 -21 -21 -19 -18 -19 -18 -17 -17 -17 -17 -17 -17 -16 -16 -16 -16 -16 -17 -16 -16 -16 -16 -16 -16 -16 -16 -16 -16 -16 -16 -16 -16 -16 -16 -16 -16 -16
-26 -25 -25 -24 -24 -22 -22 -21 -21 -20 -19 -18 -18 -18 -17 -17 -16 -17 -16 -16 -17 -17 -17 -17 -17 -17 -16 -16 -16 -16 -16 -16 -16 -16 -16 -16 -16 -16 -16 -16 -16 -16 -15 -15
-27 -27 -27 -26 -24 -22 -21 -22 -20 -20 -19 -18 -18 -18 -17 -17 -16 -16 -17 -17 -18 -17 -16 -17 -17 -17 -17 -17 -17 -16 -16 -16 -16 -16 -16 -16 -16 -16 -16 -16 -16 -16 -16 -16
-28 -28 -27 -25 -22 -21 -22 -23 -20 -20 -20 -17 -18 -17 -18 -17 -17 -16 -17 -17 -17 -17 -17 -17 -17 -18 -17 -17 -17 -16 -16 -16 -16 -16 -16 -16 -16 -16 -16 -16 -15 -16 -16 -16
-28 -27 -25 -23 -21 -21 -22 -22 -21 -20 -19 -18 -18 -17 -17 -17 -17 -16 -17 -17 -17 -17 -17 -17 -17 -18 -17 -17 -17 -17 -16 -16 -17 -16 -16 -16 -16 -16 -16 -16 -16 -17 -17 -17
-27 -25 -23 -22 -21 -21 -20 -19 -20 -19 -18 -18 -17 -16 -17 -17 -16 -16 -16 -16 -17 -17 -17 -17 -17 -18 -17 -17 -17 -17 -17 -17 -17 -17 -17 -17 -17 -17 -17 -17 -17 -17 -17 -17
-24 -23 -21 -20 -21 -20 -19 -19 -19 -19 -19 -18 -18 -18 -17 -17 -16 -16 -17 -17 -17 -17 -17 -17 -18 -18 -18 -17 -17 -17 -17 -17 -17 -17 -17 -17 -17 -17 -17 -17 -17 -18 -18 -18
-22 -20 -21 -21 -20 -19 -20 -20 -19 -18 -18 -18 -18 -18 -16 -17 -17 -16 -17 -17 -17 -18 -18 -17 -18 -18 -18 -17 -17 -18 -18 -17 -17 -17 -17 -17 -17 -17 -18 -18 -18 -18 -18 -19
-22 -20 -20 -20 -21 -20 -19 -19 -19 -18 -18 -18 -18 -17 -17 -17 -17 -17 -17 -18 -18 -18 -18 -18 -18 -18 -18 -18 -18 -18 -18 -18 -17 -17 -17 -18 -18 -18 -18 -18 -18 -19 -19 -20
-21 -21 -19 -19 -19 -19 -19 -19 -19 -18 -19 -19 -18 -18 -18 -18 -18 -18 -19 -19 -18 -18 -18 -19 -18 -18 -18 -18 -18 -18 -18 -18 -18 -18 -18 -18 -18 -19 -18 -19 -19 -20 -20 -20
-20 -20 -20 -20 -19 -20 -20 -19 -19 -18 -18 -18 -18 -18 -18 -19 -19 -19 -19 -19 -19 -19 -19 -19 -18 -18 -19 -19 -18 -18 -18 -18 -18 -19 -19 -19 -19 -19 -19 -20 -20 -20 -20 -21
-20 -19 -20 -20 -20 -20 -20 -20 -20 -19 -19 -19 -19 -19 -19 -19 -19 -19 -19 -19 -19 -19 -19 -19 -19 -19 -19 -19 -19 -19 -19 -19 -19 -19 -19 -19 -20 -20 -20 -20 -20 -21 -21 -22
-20 -20 -20 -19 -20 -20 -20 -20 -19 -19 -19 -19 -19 -19 -19 -19 -19 -19 -19 -19 -19 -19 -19 -19 -19 -19 -20 -20 -20 -20 -20 -20 -20 -20 -20 -20 -20 -20 -20 -21 -21 -22 -22 -22
-20 -20 -20 -20 -20 -20 -20 -20 -19 -19 -19 -19 -19 -19 -19 -19 -19 -19 -19 -19 -19 -19 -19 -20 -19 -20 -20 -20 -20 -20 -21 -20 -20 -20 -20 -20 -21 -21 -22 -22 -22 -22 -22 -22
-20 -20 -20 -20 -20 -20 -20 -19 -19 -19 -19 -19 -19 -19 -19 -19 -19 -19 -19 -19 -19 -19 -20 -20 -20 -20 -20 -20 -20 -20 -20 -21 -21 -21 -21 -21 -22 -22 -22 -22 -22 -22 -23 -23
-20 -20 -20 -20 -20 -20 -19 -19 -20 -20 -20 -20 -19 -19 -19 -19 -19 -19 -19 -20 -20 -20 -20 -20 -20 -20 -20 -20 -20 -21 -21 -21 -21 -21 -22 -22 -22 -22 -22 -22 -23 -22 -23 -25

GFSNW_500_temp_045.txt.gz
Temp
-20 -19 -18 -18 -18 -18 -19 -19 -18 -18 -19 -18 -15 -13 -12 -13 -17 -16 -16 -15 -15 -15 -14 -14 -15 -15 -16 -16 -16 -16 -16 -16 -17 -17 -17 -16 -16 -16 -16 -16 -16 -16 -16 -15
-22 -20 -19 -18 -18 -18 -18 -18 -18 -18 -19 -18 -14 -14 -13 -14 -17 -16 -16 -16 -15 -15 -15 -15 -15 -16 -16 -16 -16 -16 -16 -16 -16 -17 -17 -16 -16 -16 -17 -17 -16 -16 -16 -15
-23 -21 -20 -19 -19 -18 -19 -19 -19 -19 -19 -17 -16 -15 -14 -14 -17 -16 -16 -15 -15 -15 -15 -16 -15 -16 -16 -16 -16 -17 -16 -16 -16 -16 -17 -18 -17 -17 -17 -17 -16 -16 -15 -16
-23 -23 -21 -20 -19 -18 -19 -19 -19 -18 -17 -16 -15 -15 -14 -15 -16 -16 -16 -16 -15 -15 -15 -16 -16 -15 -16 -16 -16 -16 -17 -16 -17 -17 -17 -17 -17 -17 -17 -16 -16 -16 -16 -16
-23 -23 -23 -21 -20 -20 -20 -19 -19 -18 -17 -17 -16 -15 -14 -13 -16 -16 -16 -16 -16 -16 -16 -16 -16 -16 -16 -17 -17 -16 -17 -17 -17 -17 -17 -17 -17 -17 -17 -16 -16 -16 -16 -16
-22 -22 -22 -22 -21 -21 -19 -19 -19 -18 -17 -17 -17 -15 -14 -14 -16 -17 -17 -16 -18 -16 -16 -17 -17 -16 -16 -17 -17 -17 -16 -17 -17 -17 -17 -16 -16 -16 -16 -16 -16 -16 -16 -16
-22 -22 -22 -22 -22 -22 -20 -19 -19 -18 -17 -17 -16 -15 -15 -15 -16 -17 -17 -17 -16 -16 -17 -17 -17 -17 -16 -17 -17 -17 -16 -16 -16 -16 -17 -16 -15 -16 -16 -16 -16 -16 -16 -16
-23 -22 -22 -22 -22 -21 -22 -20 -20 -19 -17 -16 -17 -16 -16 -16 -17 -17 -17 -17 -17 -18 -17 -18 -18 -18 -18 -16 -16 -16 -16 -16 -16 -16 -16 -16 -15 -16 -16 -16 -16 -16 -16 -16
-23 -23 -22 -22 -22 -22 -21 -22 -21 -19 -18 -17 -17 -16 -16 -15 -17 -17 -17 -18 -18 -17 -17 -18 -17 -17 -17 -16 -16 -16 -16 -16 -16 -16 -16 -16 -16 -17 -16 -16 -16 -16 -16 -16
-23 -23 -23 -22 -22 -23 -23 -22 -21 -21 -18 -17 -17 -16 -16 -16 -17 -17 -17 -18 -17 -17 -17 -17 -17 -17 -16 -17 -16 -16 -16 -16 -16 -16 -16 -15 -16 -17 -17 -16 -16 -17 -17 -17
-23 -23 -23 -23 -23 -23 -24 -22 -22 -21 -19 -18 -17 -17 -17 -17 -17 -17 -17 -18 -17 -17 -17 -18 -17 -16 -16 -16 -16 -16 -16 -16 -16 -16 -16 -16 -16 -17 -17 -17 -17 -18 -18 -17
-23 -23 -23 -23 -24 -25 -26 -24 -22 -21 -20 -18 -17 -17 -16 -16 -17 -17 -18 -17 -17 -17 -17 -17 -17 -16 -16 -15 -16 -16 -16 -16 -16 -16 -15 -16 -16 -17 -17 -17 -17 -17 -17 -17
-23 -24 -24 -24 -25 -25 -26 -24 -22 -21 -20 -20 -18 -18 -18 -18 -18 -17 -17 -18 -18 -17 -17 -17 -17 -16 -16 -16 -16 -16 -16 -16 -16 -16 -16 -16 -16 -17 -17 -17 -17 -17 -16 -16
-24 -24 -24 -24 -25 -25 -26 -24 -22 -21 -21 -20 -19 -19 -19 -18 -18 -17 -17 -18 -18 -17 -18 -17 -17 -17 -17 -17 -17 -17 -17 -16 -16 -16 -16 -17 -17 -17 -17 -17 -17 -17 -17 -16
-24 -24 -25 -25 -25 -25 -25 -24 -22 -22 -21 -21 -20 -19 -19 -18 -18 -18 -18 -18 -17 -18 -17 -17 -17 -17 -17 -17 -17 -16 -17 -16 -17 -17 -17 -17 -17 -17 -17 -17 -17 -17 -16 -17
-26 -25 -25 -25 -25 -25 -24 -24 -22 -22 -21 -19 -19 -19 -18 -18 -17 -18 -18 -17 -18 -17 -17 -17 -17 -17 -17 -17 -16 -16 -17 -17 -17 -17 -17 -17 -17 -17 -17 -17 -16 -17 -17 -17
-26 -25 -25 -25 -25 -25 -22 -21 -21 -21 -20 -20 -20 -19 -19 -18 -18 -18 -17 -17 -17 -17 -17 -17 -17 -18 -17 -17 -17 -17 -17 -17 -18 -17 -17 -17 -17 -17 -17 -17 -17 -17 -17 -17
-29 -29 -28 -28 -27 -26 -23 -23 -22 -22 -22 -20 -19 -18 -18 -18 -18 -18 -17 -17 -17 -17 -17 -17 -17 -18 -17 -17 -17 -17 -18 -18 -18 -18 -18 -17 -17 -17 -17 -17 -17 -17 -18 -18
-29 -28 -27 -25 -24 -24 -23 -23 -22 -21 -21 -21 -19 -18 -18 -18 -17 -17 -18 -17 -17 -17 -17 -17 -17 -17 -17 -16 -17 -18 -18 -18 -18 -18 -18 -18 -18 -18 -18 -18 -18 -18 -18 -18
-25 -25 -24 -23 -22 -21 -22 -21 -20 -20 -20 -19 -18 -19 -18 -17 -17 -16 -18 -17 -17 -16 -17 -17 -17 -17 -17 -17 -18 -19 -19 -19 -18 -18 -18 -18 -18 -18 -18 -18 -18 -18 -19 -19
-22 -24 -23 -21 -20 -20 -21 -20 -20 -20 -19 -18 -18 -18 -18 -18 -18 -17 -17 -16 -17 -17 -16 -17 -17 -17 -17 -18 -18 -18 -19 -19 -19 -19 -19 -19 -19 -19 -19 -19 -19 -19 -19 -20
-20 -20 -21 -21 -20 -21 -21 -20 -20 -19 -19 -19 -18 -18 -18 -17 -18 -17 -17 -17 -17 -17 -17 -17 -17 -18 -18 -18 -18 -18 -19 -19 -19 -19 -19 -19 -19 -19 -19 -19 -20 -20 -20 -20
-21 -20 -20 -20 -20 -20 -21 -20 -19 -19 -19 -18 -19 -18 -18 -18 -18 -17 -17 -17 -17 -18 -18 -17 -18 -18 -19 -19 -19 -19 -20 -20 -20 -20 -20 -20 -20 -20 -20 -20 -20 -21 -21 -21
-20 -20 -20 -20 -20 -20 -20 -19 -19 -19 -19 -19 -19 -19 -18 -18 -18 -18 -18 -18 -18 -18 -18 -18 -18 -19 -19 -19 -19 -19 -20 -20 -20 -20 -20 -20 -20 -20 -21 -21 -21 -21 -21 -21
-20 -20 -20 -20 -20 -20 -20 -20 -20 -20 -19 -19 -19 -18 -19 -19 -19 -18 -18 -18 -18 -18 -18 -19 -19 -19 -19 -19 -19 -19 -20 -20 -20 -20 -20 -20 -21 -21 -21 -21 -21 -21 -22 -22
-20 -20 -20 -20 -20 -20 -20 -19 -20 -20 -19 -19 -19 -19 -19 -19 -19 -19 -19 -19 -19 -19 -19 -19 -19 -19 -19 -19 -19 -19 -20 -20 -21 -21 -21 -21 -21 -21 -21 -22 -22 -22 -22 -22
-20 -20 -20 -20 -20 -20 -20 -20 -20 -20 -20 -19 -20 -20 -20 -19 -19 -19 -19 -19 -20 -19 -19 -19 -19 -19 -19 -20 -20 -21 -21 -20 -21 -21 -21 -21 -21 -22 -22 -22 -22 -23 -23 -23

GFSNW_500_temp_048.txt.gz
Temp
-23 -22 -21 -19 -19 -19 -19 -19 -19 -19 -20 -20 -17 -14 -13 -14 -15 -16 -16 -15 -16 -16 -15 -15 -14 -14 -15 -16 -16 -16 -16 -16 -16 -16 -16 -16 -16 -16 -16 -16 -16 -16 -16 -15
-23 -23 -22 -21 -20 -19 -19 -19 -19 -20 -21 -20 -16 -15 -14 -14 -16 -16 -16 -16 -16 -17 -16 -15 -15 -15 -16 -16 -16 -16 -16 -16 -16 -17 -17 -17 -16 -16 -16 -16 -16 -16 -16 -15
-22 -23 -23 -22 -21 -20 -20 -19 -19 -20 -20 -19 -17 -15 -14 -14 -16 -16 -16 -16 -17 -17 -16 -15 -15 -15 -15 -16 -17 -17 -17 -17 -16 -16 -16 -17 -17 -16 -16 -16 -15 -15 -16 -16
-23 -23 -23 -23 -22 -21 -21 -20 -19 -19 -18 -18 -16 -15 -15 -15 -16 -16 -16 -16 -16 -17 -17 -16 -16 -16 -16 -16 -16 -17 -17 -17 -17 -17 -17 -17 -17 -16 -16 -16 -16 -16 -16 -16
-23 -23 -23 -23 -23 -22 -22 -21 -19 -19 -18 -19 -18 -16 -14 -14 -17 -17 -16 -16 -17 -17 -17 -16 -16 -16 -17 -16 -17 -17 -17 -17 -17 -17 -17 -17 -17 -17 -16 -16 -16 -16 -16 -16
-23 -23 -23 -24 -24 -23 -21 -21 -20 -19 -18 -19 -18 -15 -15 -15 -17 -16 -17 -18 -18 -18 -17 -17 -17 -16 -17 -16 -17 -18 -17 -17 -17 -17 -17 -17 -16 -16 -16 -16 -16 -16 -16 -16
-23 -23 -23 -24 -24 -23 -22 -21 -21 -20 -18 -18 -17 -16 -15 -15 -16 -17 -17 -18 -18 -18 -18 -18 -17 -17 -17 -17 -17 -17 -17 -18 -17 -17 -17 -16 -16 -16 -16 -16 -16 -16 -16 -16
-23 -23 -23 -23 -24 -24 -24 -22 -22 -20 -19 -18 -18 -17 -16 -16 -17 -17 -17 -19 -19 -19 -18 -17 -17 -17 -17 -17 -17 -18 -17 -17 -17 -17 -16 -16 -15 -16 -16 -16 -15 -15 -16 -16
-23 -23 -23 -23 -24 -24 -24 -23 -22 -22 -20 -18 -18 -18 -17 -16 -16 -18 -17 -18 -20 -20 -19 -17 -17 -17 -17 -18 -17 -17 -17 -17 -18 -17 -16 -15 -16 -16 -16 -15 -15 -16 -16 -16
-23 -23 -23 -23 -24 -23 -23 -23 -21 -22 -21 -19 -18 -17 -17 -17 -17 -17 -18 -18 -19 -19 -19 -18 -17 -17 -17 -17 -17 -17 -17 -17 -17 -17 -17 -16 -15 -16 -16 -16 -16 -16 -16 -16
-23 -24 -24 -24 -23 -23 -23 -23 -22 -21 -22 -20 -19 -18 -17 -17 -17 -17 -18 -19 -19 -18 -18 -17 -17 -18 -17 -17 -17 -16 -17 -17 -17 -17 -17 -16 -16 -16 -16 -16 -16 -16 -16 -17
-24 -24 -24 -23 -23 -23 -23 -22 -24 -22 -21 -21 -20 -18 -17 -17 -18 -18 -18 -18 -18 -18 -18 -17 -17 -18 -17 -17 -16 -16 -16 -17 -17 -17 -17 -16 -16 -16 -16 -16 -16 -16 -17 -17
-24 -24 -23 -23 -23 -23 -23 -23 -25 -24 -21 -21 -20 -19 -19 -19 -18 -18 -18 -18 -18 -18 -19 -18 -17 -18 -17 -16 -16 -16 -16 -17 -17 -17 -17 -16 -16 -16 -16 -16 -16 -16 -16 -16
-23 -23 -23 -23 -23 -23 -23 -24 -26 -26 -22 -21 -21 -20 -19 -19 -19 -18 -18 -19 -18 -18 -18 -18 -18 -17 -17 -17 -17 -17 -17 -18 -17 -17 -17 -17 -17 -16 -16 -16 -16 -16 -17 -17
-24 -24 -23 -23 -23 -23 -24 -28 -27 -27 -25 -22 -21 -21 -20 -20 -20 -18 -19 -19 -18 -18 -18 -18 -18 -18 -17 -17 -17 -17 -17 -17 -17 -17 -18 -17 -16 -16 -16 -17 -17 -17 -17 -17
-24 -24 -24 -24 -23 -23 -24 -27 -27 -26 -25 -23 -22 -22 -21 -21 -20 -19 -19 -18 -18 -18 -18 -18 -17 -17 -18 -17 -17 -17 -17 -18 -18 -18 -18 -17 -17 -17 -17 -17 -17 -17 -17 -17
-25 -24 -24 -24 -24 -24 -25 -27 -27 -27 -26 -24 -23 -22 -22 -21 -19 -19 -18 -18 -18 -18 -18 -17 -17 -17 -17 -17 -16 -17 -17 -18 -17 -18 -18 -18 -17 -17 -17 -17 -17 -17 -17 -17
-25 -25 -24 -24 -25 -25 -26 -27 -27 -26 -26 -25 -23 -22 -21 -20 -19 -18 -17 -18 -18 -18 -17 -17 -17 -18 -17 -16 -16 -17 -18 -18 -17 -18 -18 -18 -18 -17 -18 -18 -18 -18 -18 -18
-25 -25 -25 -25 -25 -25 -28 -27 -26 -26 -24 -23 -21 -21 -20 -19 -18 -18 -18 -18 -18 -18 -17 -17 -17 -17 -17 -16 -16 -17 -17 -18 -18 -17 -18 -18 -19 -18 -18 -18 -18 -18 -18 -18
-26 -26 -25 -25 -25 -25 -26 -26 -25 -25 -22 -21 -20 -20 -20 -19 -18 -19 -18 -18 -18 -18 -17 -17 -17 -16 -16 -17 -17 -17 -18 -18 -18 -18 -18 -18 -19 -19 -19 -19 -19 -19 -19 -19
-27 -27 -25 -24 -24 -24 -24 -24 -24 -22 -20 -20 -20 -19 -19 -18 -18 -18 -18 -18 -18 -18 -17 -17 -17 -17 -17 -18 -18 -18 -18 -18 -18 -18 -18 -19 -19 -19 -19 -19 -19 -19 -19 -19
-26 -24 -24 -24 -23 -23 -23 -22 -23 -22 -21 -20 -21 -21 -20 -19 -18 -18 -18 -18 -18 -18 -17 -18 -17 -17 -18 -17 -18 -18 -18 -18 -18 -18 -18 -18 -19 -19 -19 -20 -20 -20 -20 -20
-24 -25 -24 -23 -22 -22 -21 -21 -20 -20 -20 -20 -20 -19 -19 -18 -19 -18 -18 -17 -17 -18 -17 -18 -18 -18 -17 -17 -17 -17 -18 -18 -18 -18 -18 -19 -19 -20 -20 -20 -20 -20 -20 -20
-22 -22 -21 -21 -21 -21 -21 -20 -20 -19 -19 -19 -19 -19 -19 -19 -18 -19 -18 -18 -18 -17 -17 -17 -18 -18 -19 -18 -19 -19 -19 -19 -19 -19 -19 -19 -20 -20 -20 -20 -20 -20 -21 -21
-21 -21 -21 -20 -20 -20 -20 -20 -19 -19 -19 -19 -19 -19 -19 -19 -18 -18 -18 -18 -18 -18 -18 -18 -18 -19 -19 -19 -19 -19 -19 -19 -20 -20 -19 -20 -20 -20 -20 -20 -21 -21 -21 -21
-20 -20 -20 -20 -20 -20 -20 -20 -20 -19 -19 -19 -19 -19 -18 -18 -18 -18 -18 -18 -18 -19 -19 -19 -19 -19 -19 -19 -19 -19 -20 -20 -20 -20 -20 -20 -20 -21 -21 -21 -21 -21 -21 -22
-21 -20 -20 -20 -20 -20 -20 -20 -20 -20 -20 -19 -19 -19 -19 -19 -19 -19 -19 -19 -20 -19 -19 -19 -20 -20 -20 -20 -20 -20 -20 -20 -21 -21 -21 -21 -21 -21 -21 -21 -21 -22 -22 -22

GFSNW_500_temp_051.txt.gz
Temp
-22 -22 -22 -22 -21 -21 -23 -21 -19 -18 -20 -20 -19 -15 -13 -14 -15 -17 -16 -17 -17 -16 -17 -16 -15 -15 -15 -15 -15 -15 -15 -16 -16 -16 -17 -16 -16 -16 -16 -16 -16 -15 -15 -15
-23 -23 -22 -23 -22 -21 -21 -22 -21 -19 -21 -20 -18 -15 -14 -15 -15 -16 -16 -17 -17 -17 -17 -17 -16 -16 -16 -15 -15 -15 -15 -15 -16 -17 -17 -17 -16 -16 -17 -16 -16 -15 -15 -15
-25 -23 -23 -23 -23 -22 -22 -22 -23 -22 -22 -19 -18 -17 -15 -14 -15 -17 -17 -17 -17 -18 -17 -17 -16 -16 -16 -16 -16 -15 -16 -16 -16 -16 -17 -18 -17 -17 -17 -17 -16 -16 -15 -15
-26 -24 -23 -23 -23 -23 -24 -22 -23 -22 -20 -19 -17 -16 -15 -16 -15 -17 -17 -17 -18 -18 -17 -17 -17 -17 -18 -17 -16 -15 -16 -16 -16 -16 -17 -17 -17 -17 -16 -16 -16 -16 -15 -15
-26 -24 -24 -23 -24 -24 -24 -23 -22 -22 -20 -19 -19 -17 -15 -14 -16 -17 -17 -17 -18 -18 -18 -18 -18 -18 -18 -17 -17 -16 -17 -17 -16 -16 -17 -17 -17 -17 -17 -17 -16 -16 -16 -16
-26 -24 -23 -24 -24 -24 -22 -22 -22 -22 -21 -20 -19 -17 -15 -14 -16 -17 -17 -18 -19 -20 -19 -19 -18 -18 -18 -17 -17 -17 -17 -17 -17 -17 -17 -18 -16 -16 -17 -17 -16 -16 -16 -16
-26 -24 -24 -24 -24 -23 -22 -22 -22 -21 -21 -21 -19 -17 -16 -16 -16 -18 -18 -18 -20 -19 -20 -19 -18 -18 -18 -17 -17 -17 -17 -17 -17 -17 -18 -17 -16 -17 -17 -16 -16 -16 -16 -16
-26 -24 -24 -24 -23 -24 -23 -24 -24 -22 -22 -21 -20 -19 -17 -17 -17 -18 -19 -19 -19 -19 -20 -19 -19 -17 -18 -18 -17 -17 -18 -18 -18 -17 -17 -17 -16 -16 -17 -16 -15 -16 -16 -16
-25 -24 -24 -24 -24 -24 -24 -25 -25 -24 -22 -21 -21 -19 -18 -17 -17 -18 -18 -19 -19 -20 -20 -20 -19 -18 -18 -18 -18 -18 -18 -17 -18 -17 -17 -16 -16 -16 -16 -16 -15 -17 -16 -16
-24 -24 -24 -24 -24 -24 -24 -24 -25 -24 -22 -21 -21 -20 -18 -18 -18 -18 -18 -19 -20 -20 -20 -19 -20 -18 -18 -18 -17 -18 -18 -18 -17 -17 -17 -16 -16 -17 -17 -16 -16 -16 -16 -16
-24 -24 -24 -24 -24 -24 -24 -24 -25 -25 -22 -21 -21 -21 -20 -19 -18 -18 -19 -20 -20 -19 -19 -19 -18 -18 -17 -17 -17 -17 -18 -17 -17 -17 -17 -16 -17 -17 -17 -17 -16 -15 -15 -16
-24 -24 -24 -24 -24 -24 -24 -24 -24 -25 -24 -23 -22 -21 -20 -19 -19 -20 -19 -19 -20 -19 -19 -18 -18 -18 -17 -17 -17 -17 -18 -17 -17 -17 -17 -17 -17 -17 -17 -17 -16 -16 -15 -16
-24 -24 -24 -24 -24 -24 -24 -24 -24 -24 -24 -23 -21 -21 -21 -21 -20 -20 -19 -19 -19 -19 -19 -19 -19 -18 -18 -17 -17 -17 -17 -17 -18 -17 -17 -17 -17 -17 -17 -17 -16 -15 -16 -16
-24 -24 -24 -24 -24 -24 -24 -23 -24 -24 -25 -25 -24 -23 -22 -22 -20 -19 -19 -19 -19 -19 -19 -19 -18 -18 -18 -17 -17 -17 -17 -18 -18 -17 -17 -17 -17 -17 -17 -16 -16 -16 -16 -16
-24 -24 -24 -24 -24 -24 -23 -24 -23 -26 -26 -25 -25 -24 -24 -22 -21 -20 -20 -19 -19 -19 -19 -19 -19 -19 -18 -18 -17 -17 -17 -17 -17 -17 -18 -18 -18 -18 -17 -17 -17 -17 -17 -17
-24 -24 -24 -24 -24 -23 -23 -23 -23 -26 -27 -27 -25 -24 -23 -23 -22 -22 -20 -19 -19 -19 -19 -18 -18 -18 -18 -18 -17 -17 -16 -17 -17 -17 -17 -17 -18 -18 -18 -17 -17 -17 -17 -17
-24 -24 -24 -24 -24 -23 -23 -25 -27 -26 -27 -27 -26 -24 -23 -22 -22 -21 -20 -20 -19 -19 -19 -18 -18 -19 -18 -17 -16 -17 -16 -17 -18 -18 -18 -17 -18 -18 -18 -18 -18 -18 -18 -18
-24 -24 -24 -23 -24 -24 -25 -27 -27 -26 -26 -26 -25 -25 -23 -22 -21 -21 -20 -19 -19 -19 -18 -18 -18 -18 -18 -17 -16 -17 -17 -17 -18 -17 -18 -18 -18 -18 -17 -18 -19 -19 -18 -18
-24 -24 -24 -24 -23 -24 -26 -26 -27 -27 -26 -25 -24 -23 -22 -21 -21 -20 -20 -19 -19 -18 -18 -18 -18 -18 -17 -16 -16 -16 -17 -17 -17 -17 -17 -18 -18 -17 -17 -18 -18 -19 -19 -19
-24 -24 -24 -24 -24 -25 -27 -27 -27 -26 -25 -26 -25 -23 -22 -21 -21 -20 -19 -18 -18 -18 -17 -18 -17 -17 -17 -16 -16 -17 -17 -18 -18 -18 -18 -18 -18 -18 -18 -18 -18 -18 -19 -19
-24 -24 -25 -25 -25 -27 -28 -28 -27 -25 -25 -24 -24 -22 -21 -21 -20 -19 -18 -18 -18 -18 -18 -17 -16 -16 -16 -16 -16 -17 -18 -18 -18 -17 -18 -18 -18 -18 -18 -18 -18 -18 -19 -19
-25 -25 -25 -25 -25 -26 -27 -27 -26 -25 -25 -24 -22 -21 -20 -20 -20 -19 -19 -19 -19 -18 -18 -18 -17 -17 -18 -18 -18 -18 -18 -18 -18 -18 -18 -18 -18 -18 -18 -18 -19 -19 -19 -20
-25 -25 -24 -24 -24 -24 -24 -24 -23 -23 -23 -23 -22 -21 -20 -19 -20 -19 -18 -18 -18 -18 -18 -17 -17 -18 -18 -18 -18 -18 -17 -18 -17 -18 -18 -18 -18 -19 -19 -19 -19 -20 -20 -20
-24 -24 -23 -23 -23 -23 -22 -22 -21 -22 -21 -21 -21 -20 -20 -20 -19 -19 -19 -19 -18 -18 -18 -18 -18 -18 -18 -18 -18 -18 -18 -17 -17 -18 -18 -18 -18 -19 -20 -20 -20 -20 -20 -20
-23 -23 -22 -22 -21 -21 -20 -20 -20 -20 -20 -20 -20 -19 -19 -19 -19 -19 -19 -19 -18 -18 -18 -18 -18 -18 -18 -18 -18 -18 -18 -18 -19 -18 -19 -19 -19 -20 -20 -20 -20 -20 -20 -21
-22 -21 -21 -21 -20 -20 -20 -20 -20 -20 -20 -20 -19 -19 -19 -19 -19 -19 -19 -19 -19 -19 -19 -19 -19 -19 -19 -19 -20 -20 -19 -19 -20 -20 -20 -20 -20 -20 -20 -20 -20 -21 -21 -21
-21 -21 -20 -20 -20 -20 -20 -20 -20 -20 -20 -20 -20 -20 -20 -20 -19 -19 -19 -20 -20 -20 -20 -20 -20 -20 -20 -20 -20 -20 -20 -20 -20 -20 -20 -20 -20 -20 -20 -21 -21 -21 -22 -22

GFSNW_500_temp_054.txt.gz
Temp
-21 -21 -22 -22 -22 -22 -22 -21 -20 -20 -22 -24 -21 -18 -15 -15 -14 -14 -16 -15 -16 -16 -16 -15 -15 -16 -16 -16 -16 -15 -15 -15 -15 -16 -16 -16 -16 -17 -16 -15 -16 -16 -16 -15
-23 -22 -23 -23 -23 -22 -23 -22 -21 -21 -22 -23 -22 -18 -16 -16 -15 -15 -16 -16 -17 -17 -17 -16 -16 -17 -17 -17 -16 -16 -15 -15 -15 -16 -16 -16 -16 -16 -16 -16 -16 -16 -16 -15
-25 -24 -23 -23 -23 -23 -23 -22 -22 -23 -22 -22 -21 -20 -18 -16 -15 -17 -17 -17 -17 -17 -18 -16 -16 -17 -18 -17 -16 -16 -16 -16 -15 -16 -16 -17 -17 -16 -17 -17 -17 -16 -15 -16
-25 -24 -24 -24 -24 -24 -24 -23 -22 -20 -19 -21 -20 -21 -19 -17 -16 -17 -17 -17 -17 -18 -19 -17 -17 -18 -18 -17 -17 -17 -16 -15 -15 -16 -16 -17 -17 -17 -17 -17 -16 -16 -16 -16
-26 -25 -24 -25 -25 -24 -24 -23 -22 -21 -20 -22 -21 -20 -20 -18 -17 -18 -17 -16 -18 -19 -20 -18 -18 -18 -18 -18 -18 -17 -16 -16 -16 -16 -16 -17 -17 -17 -17 -17 -16 -16 -16 -16
-27 -27 -27 -26 -26 -25 -25 -23 -22 -22 -21 -22 -22 -21 -20 -18 -18 -18 -18 -18 -19 -19 -20 -20 -20 -19 -18 -18 -18 -18 -17 -17 -16 -16 -16 -17 -15 -16 -16 -17 -17 -17 -16 -16
-27 -27 -26 -26 -26 -26 -24 -23 -23 -22 -21 -23 -21 -20 -20 -20 -18 -19 -19 -18 -19 -20 -20 -20 -20 -19 -18 -17 -18 -18 -17 -17 -17 -17 -17 -16 -16 -16 -17 -17 -17 -17 -16 -16
-26 -26 -26 -26 -26 -26 -24 -23 -23 -22 -23 -23 -22 -21 -20 -21 -21 -20 -19 -19 -20 -21 -22 -21 -21 -18 -17 -18 -18 -18 -18 -18 -17 -17 -16 -16 -15 -16 -17 -17 -17 -17 -17 -16
-26 -26 -26 -27 -26 -25 -24 -24 -24 -24 -24 -23 -23 -22 -21 -21 -21 -21 -20 -20 -20 -21 -21 -20 -19 -18 -18 -18 -18 -18 -18 -18 -18 -17 -17 -15 -16 -16 -17 -17 -15 -18 -17 -16
-26 -26 -26 -27 -26 -25 -24 -24 -24 -25 -24 -25 -24 -23 -21 -21 -21 -21 -21 -20 -20 -21 -21 -20 -20 -19 -18 -18 -17 -17 -18 -18 -18 -17 -17 -16 -16 -16 -17 -17 -16 -17 -16 -16
-26 -26 -26 -26 -25 -24 -25 -25 -25 -25 -25 -25 -25 -24 -23 -22 -22 -22 -21 -22 -21 -20 -20 -20 -20 -20 -19 -18 -18 -17 -18 -18 -18 -18 -17 -16 -16 -17 -17 -17 -17 -17 -16 -16
-26 -26 -26 -25 -25 -25 -24 -25 -24 -24 -25 -26 -25 -24 -24 -22 -22 -23 -21 -20 -21 -20 -20 -20 -20 -20 -20 -19 -18 -18 -18 -17 -18 -17 -17 -17 -17 -17 -17 -17 -17 -17 -16 -16
-26 -25 -25 -25 -25 -25 -25 -24 -24 -24 -25 -26 -26 -24 -23 -23 -22 -22 -21 -21 -21 -20 -20 -20 -20 -20 -19 -19 -18 -18 -18 -18 -17 -17 -17 -17 -17 -17 -17 -17 -17 -17 -16 -16
-25 -25 -25 -25 -25 -25 -25 -24 -25 -25 -25 -25 -25 -25 -23 -23 -22 -21 -21 -21 -21 -21 -20 -20 -19 -19 -19 -18 -18 -18 -18 -18 -17 -17 -17 -17 -17 -18 -18 -17 -17 -17 -17 -16
-25 -25 -25 -25 -25 -25 -25 -24 -24 -24 -25 -25 -25 -25 -24 -22 -22 -21 -21 -21 -21 -21 -20 -19 -19 -19 -19 -19 -18 -17 -17 -18 -17 -16 -17 -17 -17 -18 -18 -17 -17 -17 -17 -17
-25 -25 -25 -24 -24 -24 -24 -24 -23 -23 -24 -25 -23 -24 -23 -23 -23 -21 -22 -21 -21 -20 -20 -20 -19 -19 -19 -18 -17 -17 -17 -17 -18 -17 -18 -18 -17 -18 -18 -17 -17 -17 -17 -17
-24 -24 -24 -24 -24 -24 -24 -23 -23 -24 -26 -26 -25 -23 -24 -23 -23 -23 -22 -21 -20 -20 -20 -20 -19 -19 -19 -18 -17 -18 -17 -17 -17 -17 -17 -17 -18 -18 -17 -17 -17 -18 -17 -18
-24 -24 -23 -24 -24 -24 -23 -24 -23 -26 -26 -26 -24 -22 -23 -23 -22 -22 -21 -21 -20 -20 -19 -19 -19 -19 -18 -17 -18 -18 -18 -17 -17 -17 -17 -17 -17 -18 -17 -17 -17 -18 -17 -18
-23 -23 -24 -23 -23 -24 -25 -25 -26 -27 -26 -25 -24 -24 -23 -22 -22 -22 -21 -21 -20 -19 -19 -19 -19 -18 -17 -17 -18 -18 -18 -17 -17 -17 -17 -17 -17 -18 -18 -18 -18 -18 -18 -18
-24 -24 -24 -24 -24 -24 -25 -26 -27 -27 -26 -25 -25 -24 -23 -23 -22 -21 -21 -21 -20 -19 -19 -18 -18 -18 -18 -18 -18 -17 -17 -17 -17 -17 -17 -17 -18 -17 -17 -18 -18 -18 -18 -18
-24 -25 -24 -25 -24 -25 -26 -26 -26 -26 -25 -25 -23 -23 -22 -22 -22 -21 -21 -20 -20 -19 -18 -18 -17 -17 -17 -17 -17 -17 -17 -17 -17 -17 -18 -18 -18 -18 -18 -18 -18 -17 -18 -18
-24 -24 -24 -25 -26 -26 -27 -27 -26 -25 -25 -23 -22 -22 -21 -22 -21 -21 -20 -19 -19 -19 -19 -18 -18 -17 -17 -17 -17 -18 -18 -18 -18 -18 -18 -18 -18 -18 -17 -18 -18 -18 -18 -18
-24 -24 -24 -25 -26 -28 -27 -25 -25 -25 -24 -24 -23 -22 -21 -21 -21 -21 -20 -19 -20 -19 -19 -18 -17 -18 -18 -18 -18 -18 -18 -18 -18 -18 -18 -17 -17 -17 -17 -18 -18 -18 -18 -18
-25 -25 -25 -26 -25 -24 -24 -24 -24 -24 -23 -23 -22 -22 -22 -20 -20 -20 -19 -19 -19 -19 -18 -17 -18 -17 -17 -17 -18 -18 -18 -18 -18 -18 -18 -18 -18 -18 -18 -18 -18 -18 -19 -19
-24 -25 -25 -24 -23 -23 -23 -23 -23 -23 -23 -22 -22 -21 -21 -20 -20 -20 -20 -20 -19 -19 -18 -19 -19 -19 -19 -18 -18 -18 -18 -18 -18 -18 -18 -18 -18 -19 -18 -18 -19 -19 -19 -20
-23 -23 -22 -22 -22 -22 -22 -23 -22 -22 -22 -22 -21 -21 -21 -20 -20 -19 -19 -19 -19 -19 -19 -19 -18 -18 -18 -19 -19 -19 -18 -18 -18 -18 -19 -19 -19 -20 -20 -20 -20 -20 -20 -20
-22 -22 -22 -21 -21 -21 -21 -21 -21 -21 -21 -20 -20 -20 -20 -19 -19 -19 -19 -19 -19 -19 -19 -19 -19 -20 -20 -20 -20 -20 -20 -19 -20 -20 -20 -20 -20 -20 -20 -20 -20 -20 -20 -21

GFSNW_500_temp_057.txt.gz
Temp
-19 -20 -20 -20 -21 -21 -21 -21 -20 -19 -21 -21 -21 -20 -19 -18 -18 -17 -17 -16 -16 -17 -17 -15 -15 -15 -15 -15 -16 -16 -16 -15 -17 -14 -15 -15 -16 -16 -15 -17 -16 -16 -16 -16
-20 -20 -20 -20 -21 -21 -21 -21 -21 -21 -22 -21 -19 -19 -19 -19 -20 -19 -19 -17 -17 -17 -17 -16 -17 -16 -15 -15 -16 -17 -16 -16 -16 -18 -16 -15 -15 -17 -17 -17 -17 -16 -16 -16
-20 -21 -20 -21 -22 -22 -22 -22 -22 -22 -21 -21 -20 -19 -17 -20 -20 -20 -18 -20 -19 -18 -17 -17 -17 -17 -16 -16 -17 -18 -17 -16 -16 -16 -17 -17 -15 -17 -18 -17 -17 -16 -17 -17
-21 -22 -23 -23 -23 -23 -23 -23 -22 -22 -21 -20 -19 -19 -20 -21 -20 -20 -20 -20 -19 -18 -18 -18 -18 -17 -17 -17 -17 -18 -17 -16 -17 -16 -17 -17 -17 -17 -18 -18 -17 -17 -17 -17
-24 -25 -26 -25 -25 -24 -23 -24 -23 -22 -22 -21 -22 -21 -20 -21 -21 -20 -20 -20 -20 -21 -20 -20 -19 -19 -18 -17 -17 -18 -18 -17 -17 -16 -18 -18 -18 -17 -17 -17 -17 -17 -17 -17
-25 -25 -25 -25 -25 -25 -25 -25 -25 -23 -22 -22 -22 -21 -20 -20 -21 -20 -20 -20 -20 -21 -21 -18 -20 -19 -18 -17 -17 -18 -18 -17 -17 -17 -18 -18 -18 -15 -17 -17 -18 -17 -17 -17
-25 -25 -25 -25 -25 -25 -26 -25 -25 -24 -23 -23 -21 -21 -21 -21 -22 -21 -20 -22 -21 -20 -22 -21 -20 -20 -19 -18 -17 -18 -18 -18 -17 -16 -16 -16 -15 -16 -16 -16 -16 -17 -16 -16
-27 -27 -26 -26 -26 -26 -27 -26 -26 -25 -24 -23 -22 -22 -22 -22 -23 -24 -24 -24 -21 -22 -21 -22 -21 -21 -19 -17 -17 -17 -18 -18 -17 -16 -16 -16 -15 -16 -16 -17 -16 -18 -16 -17
-28 -28 -28 -27 -27 -26 -27 -26 -25 -25 -24 -23 -23 -23 -23 -23 -23 -23 -24 -25 -22 -22 -21 -22 -21 -20 -18 -19 -18 -17 -17 -17 -17 -17 -16 -16 -15 -16 -16 -17 -16 -17 -17 -17
-28 -28 -28 -28 -27 -27 -26 -26 -26 -25 -24 -25 -25 -24 -23 -23 -23 -23 -24 -23 -22 -21 -21 -22 -22 -21 -21 -19 -18 -17 -17 -17 -17 -17 -16 -16 -16 -16 -17 -17 -16 -18 -18 -17
-28 -28 -27 -27 -27 -26 -26 -25 -25 -25 -25 -25 -25 -24 -24 -24 -23 -23 -23 -23 -22 -21 -21 -22 -22 -21 -21 -19 -18 -17 -18 -18 -17 -17 -17 -16 -16 -17 -16 -17 -17 -17 -17 -17
-27 -27 -27 -27 -26 -26 -25 -25 -25 -26 -25 -25 -25 -24 -24 -25 -24 -23 -24 -22 -21 -20 -21 -22 -22 -21 -21 -19 -19 -18 -17 -17 -18 -17 -17 -17 -17 -18 -17 -17 -18 -17 -17 -16
-26 -26 -26 -26 -26 -26 -26 -26 -26 -26 -25 -26 -25 -25 -25 -25 -25 -25 -24 -23 -22 -21 -21 -22 -22 -21 -20 -19 -19 -20 -18 -18 -17 -18 -18 -18 -17 -17 -18 -18 -18 -18 -17 -16
-26 -26 -26 -26 -26 -26 -26 -26 -25 -25 -25 -25 -26 -26 -25 -24 -24 -24 -23 -22 -23 -22 -22 -22 -21 -21 -21 -20 -20 -19 -18 -19 -18 -17 -18 -18 -17 -17 -17 -17 -18 -17 -16 -16
-26 -26 -26 -26 -26 -26 -25 -25 -25 -25 -25 -25 -26 -26 -25 -24 -24 -24 -23 -22 -22 -20 -21 -21 -20 -20 -21 -20 -20 -18 -19 -18 -18 -18 -18 -18 -17 -17 -17 -18 -18 -17 -16 -17
-26 -26 -25 -25 -25 -25 -25 -25 -25 -25 -25 -25 -25 -26 -26 -24 -24 -24 -24 -22 -22 -21 -21 -21 -21 -20 -21 -20 -18 -18 -19 -19 -19 -19 -19 -18 -18 -18 -17 -17 -17 -18 -17 -16
-25 -25 -25 -25 -25 -25 -25 -24 -25 -25 -25 -25 -25 -26 -26 -24 -24 -24 -24 -22 -21 -21 -20 -20 -20 -20 -20 -19 -18 -19 -19 -18 -18 -18 -18 -18 -19 -18 -18 -17 -17 -18 -17 -17
-25 -25 -25 -25 -25 -25 -24 -24 -25 -25 -25 -24 -25 -25 -25 -24 -24 -24 -24 -22 -21 -21 -20 -20 -20 -20 -19 -19 -19 -19 -19 -19 -18 -18 -17 -17 -17 -18 -18 -18 -18 -18 -18 -17
-24 -24 -24 -24 -24 -24 -24 -23 -23 -23 -25 -24 -24 -24 -24 -23 -23 -22 -22 -22 -21 -20 -20 -20 -20 -20 -19 -19 -19 -19 -19 -19 -18 -17 -17 -17 -17 -17 -17 -17 -17 -17 -17 -18
-24 -24 -24 -24 -24 -24 -24 -24 -23 -24 -25 -24 -24 -24 -23 -23 -22 -21 -22 -22 -21 -20 -19 -20 -20 -20 -20 -19 -19 -19 -18 -18 -18 -17 -17 -17 -17 -17 -17 -17 -17 -17 -17 -18
-24 -24 -24 -24 -24 -24 -24 -25 -25 -26 -26 -24 -23 -23 -23 -22 -21 -22 -21 -21 -20 -20 -19 -19 -19 -19 -19 -18 -18 -18 -18 -18 -17 -17 -17 -17 -17 -17 -17 -17 -17 -17 -17 -17
-24 -24 -24 -25 -25 -25 -25 -25 -25 -26 -26 -24 -24 -23 -23 -22 -22 -21 -21 -21 -21 -20 -20 -20 -19 -18 -18 -18 -17 -17 -17 -17 -17 -17 -17 -17 -17 -17 -18 -17 -17 -18 -18 -18
-24 -25 -26 -27 -27 -26 -27 -26 -26 -26 -25 -25 -24 -23 -23 -22 -22 -21 -21 -21 -20 -20 -20 -19 -18 -18 -17 -17 -18 -18 -18 -18 -18 -17 -17 -17 -17 -17 -17 -17 -18 -17 -17 -18
-25 -26 -27 -28 -27 -27 -27 -27 -26 -26 -25 -24 -24 -23 -22 -22 -22 -21 -21 -21 -20 -20 -19 -19 -19 -18 -18 -17 -17 -18 -18 -18 -18 -18 -17 -18 -18 -18 -18 -18 -18 -17 -17 -18
-24 -24 -25 -25 -26 -26 -26 -26 -25 -25 -24 -23 -24 -24 -23 -22 -22 -22 -22 -21 -20 -19 -19 -19 -18 -18 -18 -17 -18 -18 -17 -17 -17 -18 -18 -18 -18 -18 -18 -18 -18 -18 -18 -18
-24 -23 -24 -24 -24 -25 -24 -24 -23 -24 -24 -24 -23 -22 -22 -22 -22 -21 -21 -20 -19 -19 -19 -19 -19 -19 -19 -19 -19 -18 -18 -19 -19 -19 -19 -19 -19 -19 -19 -19 -19 -19 -19 -19
-23 -23 -23 -23 -23 -23 -23 -23 -22 -22 -22 -22 -21 -21 -21 -21 -21 -21 -20 -20 -19 -20 -20 -19 -19 -19 -19 -19 -19 -19 -19 -19 -19 -19 -19 -19 -20 -20 -20 -20 -20 -20 -20 -20

GFSNW_500_temp_060.txt.gz
Temp
-21 -20 -20 -20 -20 -20 -20 -20 -20 -20 -21 -21 -20 -18 -17 -18 -18 -18 -20 -20 -17 -17 -18 -16 -16 -15 -15 -15 -15 -14 -15 -16 -16 -15 -15 -15 -15 -15 -16 -15 -15 -15 -15 -15
-20 -20 -20 -20 -20 -21 -21 -20 -20 -20 -21 -20 -19 -19 -18 -18 -17 -19 -20 -21 -19 -18 -19 -17 -17 -16 -17 -17 -17 -15 -15 -16 -16 -17 -16 -16 -16 -16 -16 -15 -16 -15 -15 -15
-20 -20 -20 -20 -20 -21 -21 -21 -21 -20 -20 -20 -20 -19 -18 -18 -19 -19 -21 -21 -21 -20 -19 -18 -17 -16 -17 -17 -16 -16 -16 -16 -16 -16 -16 -16 -16 -16 -16 -16 -16 -15 -15 -15
-20 -20 -20 -20 -20 -21 -22 -22 -21 -20 -20 -20 -19 -20 -19 -19 -18 -18 -20 -22 -21 -21 -19 -18 -17 -17 -17 -17 -17 -16 -16 -15 -16 -17 -17 -17 -16 -16 -16 -16 -16 -16 -16 -16
-20 -20 -20 -21 -21 -21 -23 -23 -22 -21 -21 -21 -21 -21 -20 -20 -19 -20 -18 -21 -20 -19 -20 -18 -18 -18 -17 -17 -17 -17 -17 -16 -17 -17 -17 -17 -16 -16 -16 -16 -17 -17 -17 -17
-21 -21 -22 -22 -22 -23 -24 -24 -23 -23 -22 -21 -22 -21 -20 -20 -20 -20 -21 -21 -22 -22 -20 -20 -19 -18 -17 -17 -17 -17 -17 -18 -18 -17 -17 -18 -16 -17 -16 -16 -16 -17 -16 -17
-24 -24 -23 -23 -23 -24 -25 -25 -24 -25 -24 -23 -22 -22 -21 -21 -21 -21 -22 -22 -22 -21 -21 -20 -18 -18 -17 -17 -17 -18 -17 -18 -18 -18 -18 -17 -16 -16 -17 -17 -17 -17 -17 -17
-26 -25 -25 -26 -26 -26 -26 -25 -25 -25 -24 -24 -23 -23 -22 -22 -21 -22 -22 -22 -21 -22 -23 -22 -20 -19 -18 -17 -18 -18 -18 -17 -17 -17 -17 -16 -16 -16 -17 -17 -16 -17 -16 -17
-26 -26 -26 -26 -26 -25 -26 -26 -25 -25 -25 -25 -24 -24 -23 -22 -22 -23 -21 -21 -23 -24 -23 -22 -20 -19 -19 -18 -19 -18 -17 -17 -17 -17 -16 -16 -16 -17 -17 -17 -16 -16 -16 -17
-27 -27 -27 -27 -27 -26 -27 -25 -25 -26 -25 -25 -25 -25 -24 -24 -23 -23 -23 -22 -25 -24 -23 -21 -20 -20 -20 -20 -19 -18 -17 -18 -17 -17 -17 -15 -16 -17 -18 -17 -16 -17 -18 -17
-27 -27 -27 -27 -27 -26 -26 -26 -26 -26 -25 -25 -25 -25 -24 -24 -24 -23 -22 -24 -24 -21 -21 -21 -21 -20 -21 -20 -20 -19 -18 -18 -18 -17 -17 -16 -16 -17 -18 -17 -17 -18 -18 -17
-27 -28 -28 -27 -27 -27 -26 -26 -26 -26 -26 -25 -25 -25 -24 -24 -24 -24 -23 -23 -23 -22 -20 -21 -21 -20 -21 -20 -20 -21 -18 -17 -17 -18 -16 -17 -17 -17 -18 -18 -18 -18 -18 -15
-28 -28 -28 -28 -27 -27 -26 -26 -26 -26 -26 -25 -25 -25 -25 -25 -24 -23 -22 -23 -23 -22 -23 -22 -21 -21 -21 -20 -20 -20 -19 -19 -18 -17 -17 -17 -17 -17 -17 -18 -18 -18 -18 -17
-28 -28 -28 -28 -28 -28 -27 -26 -26 -26 -25 -25 -25 -25 -25 -24 -24 -23 -23 -23 -23 -23 -23 -22 -21 -21 -21 -20 -20 -20 -20 -20 -18 -18 -17 -17 -17 -17 -17 -17 -17 -18 -18 -18
-28 -28 -28 -28 -28 -27 -27 -26 -26 -26 -25 -25 -25 -25 -25 -25 -24 -25 -25 -25 -24 -23 -22 -22 -21 -21 -21 -21 -20 -19 -20 -20 -19 -18 -18 -19 -18 -18 -17 -17 -17 -18 -18 -18
-26 -26 -26 -26 -26 -26 -26 -26 -26 -25 -25 -25 -25 -25 -24 -25 -25 -24 -24 -24 -24 -23 -21 -21 -21 -21 -20 -20 -19 -19 -20 -21 -21 -20 -20 -19 -18 -18 -18 -17 -17 -17 -17 -17
-26 -26 -26 -26 -26 -26 -26 -25 -25 -25 -25 -25 -25 -25 -24 -24 -24 -24 -24 -25 -23 -23 -23 -22 -21 -20 -20 -20 -20 -20 -20 -21 -21 -20 -19 -19 -19 -19 -19 -18 -18 -17 -17 -17
-26 -26 -26 -26 -26 -26 -25 -25 -25 -25 -25 -25 -25 -25 -25 -24 -25 -24 -24 -24 -24 -24 -23 -22 -21 -21 -21 -20 -20 -20 -20 -21 -20 -20 -20 -19 -19 -18 -18 -18 -18 -18 -18 -18
-26 -26 -26 -26 -26 -26 -25 -25 -25 -26 -25 -25 -25 -25 -25 -25 -24 -24 -24 -24 -24 -23 -22 -21 -21 -21 -20 -20 -20 -20 -19 -19 -19 -19 -19 -18 -18 -18 -17 -17 -17 -17 -17 -17
-25 -25 -25 -25 -25 -25 -25 -25 -25 -25 -25 -24 -24 -25 -25 -25 -25 -24 -24 -23 -23 -23 -22 -22 -22 -21 -20 -20 -20 -20 -20 -20 -19 -19 -18 -18 -18 -17 -17 -17 -17 -17 -17 -18
-24 -24 -25 -25 -25 -25 -25 -24 -24 -24 -24 -24 -25 -24 -24 -24 -24 -24 -23 -23 -23 -23 -22 -21 -21 -21 -20 -19 -19 -19 -20 -20 -19 -18 -18 -17 -17 -17 -17 -17 -17 -17 -17 -17
-25 -25 -25 -25 -25 -24 -25 -24 -25 -25 -24 -23 -24 -24 -23 -23 -24 -24 -24 -22 -22 -22 -22 -21 -21 -20 -19 -19 -19 -19 -19 -18 -18 -18 -18 -17 -17 -17 -17 -17 -17 -18 -18 -18
-25 -25 -25 -25 -25 -25 -25 -26 -26 -26 -26 -24 -23 -23 -23 -23 -22 -23 -22 -22 -22 -22 -22 -21 -20 -19 -19 -19 -19 -18 -18 -18 -18 -18 -18 -17 -17 -17 -17 -17 -17 -18 -17 -18
-25 -26 -26 -26 -26 -26 -26 -26 -27 -26 -26 -24 -24 -24 -23 -22 -22 -22 -22 -21 -21 -21 -21 -20 -19 -19 -19 -19 -19 -19 -18 -18 -18 -18 -18 -18 -18 -18 -18 -17 -17 -17 -18 -18
-26 -26 -26 -27 -27 -26 -27 -26 -26 -26 -24 -23 -24 -23 -23 -22 -22 -21 -21 -21 -21 -20 -20 -20 -20 -20 -19 -19 -19 -18 -18 -18 -18 -18 -18 -18 -18 -18 -18 -18 -18 -18 -18 -18
-25 -26 -26 -26 -26 -26 -26 -26 -25 -23 -23 -24 -23 -23 -22 -22 -22 -21 -21 -20 -20 -20 -20 -20 -20 -20 -19 -19 -18 -18 -18 -19 -19 -19 -19 -19 -19 -19 -19 -19 -19 -19 -19 -19
-24 -24 -25 -24 -24 -24 -24 -23 -22 -23 -23 -23 -23 -22 -22 -21 -21 -20 -20 -21 -21 -21 -21 -21 -20 -20 -20 -19 -19 -19 -19 -19 -20 -20 -20 -20 -20 -20 -20 -20 -20 -20 -20 -20

GFSNW_500_temp_063.txt.gz
Temp
-22 -22 -22 -22 -22 -22 -22 -22 -21 -21 -22 -21 -20 -19 -18 -19 -18 -18 -18 -20 -19 -18 -19 -18 -16 -16 -14 -16 -16 -15 -14 -15 -15 -14 -14 -14 -14 -15 -16 -15 -15 -16 -15 -15
-22 -22 -22 -22 -22 -22 -22 -22 -21 -21 -22 -20 -19 -19 -19 -19 -19 -19 -19 -20 -21 -20 -19 -19 -17 -16 -16 -16 -17 -15 -16 -15 -15 -15 -15 -15 -15 -15 -16 -16 -15 -16 -16 -15
-22 -22 -22 -22 -21 -22 -22 -22 -21 -21 -20 -20 -19 -19 -19 -19 -19 -19 -19 -20 -20 -21 -20 -19 -18 -16 -17 -17 -16 -17 -17 -16 -15 -14 -15 -15 -15 -15 -16 -15 -15 -15 -15 -15
-22 -21 -21 -21 -21 -21 -22 -22 -20 -20 -19 -19 -19 -19 -19 -19 -19 -19 -19 -19 -20 -19 -21 -20 -19 -18 -17 -17 -16 -17 -16 -16 -15 -16 -16 -16 -16 -16 -16 -16 -15 -15 -15 -15
-21 -21 -21 -21 -21 -22 -22 -22 -21 -20 -20 -20 -20 -20 -19 -19 -20 -19 -19 -19 -20 -21 -19 -20 -20 -19 -18 -17 -17 -17 -17 -16 -16 -16 -16 -17 -16 -16 -16 -16 -16 -16 -16 -16
-21 -21 -20 -21 -21 -22 -22 -22 -21 -21 -20 -21 -21 -19 -19 -19 -20 -20 -20 -20 -20 -20 -20 -21 -21 -20 -19 -18 -17 -17 -16 -16 -17 -16 -17 -17 -16 -15 -16 -16 -16 -16 -16 -16
-20 -21 -21 -21 -21 -21 -23 -22 -22 -23 -21 -21 -20 -20 -20 -20 -20 -20 -20 -20 -20 -19 -22 -22 -22 -21 -19 -18 -17 -17 -17 -17 -18 -17 -17 -17 -14 -15 -16 -16 -16 -16 -16 -17
-21 -21 -21 -21 -22 -22 -24 -24 -24 -24 -24 -22 -22 -21 -21 -22 -22 -21 -21 -20 -20 -22 -23 -22 -22 -20 -20 -18 -18 -17 -17 -17 -18 -18 -17 -15 -15 -15 -16 -16 -16 -16 -16 -16
-24 -24 -24 -24 -24 -24 -24 -24 -25 -25 -25 -24 -23 -24 -23 -23 -22 -22 -21 -21 -22 -22 -22 -21 -22 -21 -21 -20 -19 -18 -17 -18 -18 -17 -17 -15 -15 -16 -17 -17 -15 -16 -16 -17
-26 -26 -26 -26 -26 -25 -26 -25 -25 -25 -25 -25 -25 -24 -24 -24 -24 -23 -22 -22 -23 -22 -22 -21 -21 -21 -20 -19 -19 -19 -17 -18 -18 -18 -17 -16 -16 -17 -17 -17 -15 -17 -17 -17
-27 -27 -27 -27 -26 -26 -26 -26 -26 -27 -25 -25 -25 -25 -24 -25 -24 -24 -23 -23 -23 -22 -22 -21 -20 -20 -19 -20 -20 -20 -19 -19 -18 -19 -18 -17 -17 -17 -17 -15 -17 -17 -18 -17
-28 -28 -28 -27 -27 -27 -27 -26 -26 -26 -26 -25 -25 -25 -25 -25 -24 -24 -23 -23 -23 -22 -22 -21 -20 -21 -20 -20 -21 -21 -20 -19 -19 -19 -18 -18 -17 -17 -17 -17 -16 -17 -17 -17
-28 -27 -28 -28 -28 -28 -27 -26 -26 -27 -26 -25 -25 -25 -25 -25 -24 -24 -24 -23 -23 -22 -22 -22 -22 -21 -21 -21 -20 -20 -20 -20 -19 -19 -19 -18 -18 -17 -17 -17 -17 -17 -17 -18
-27 -28 -28 -27 -27 -28 -27 -27 -26 -26 -26 -25 -25 -25 -25 -25 -25 -24 -24 -24 -23 -23 -22 -22 -22 -22 -21 -21 -21 -20 -20 -20 -20 -18 -19 -18 -18 -17 -17 -17 -17 -17 -17 -17
-27 -28 -28 -28 -27 -27 -27 -27 -26 -26 -25 -25 -25 -25 -25 -25 -25 -25 -24 -24 -23 -23 -22 -22 -21 -22 -22 -22 -22 -20 -20 -20 -19 -19 -18 -18 -18 -18 -17 -17 -16 -17 -17 -18
-27 -28 -28 -28 -27 -28 -28 -27 -26 -26 -25 -25 -26 -25 -25 -25 -25 -25 -24 -24 -23 -23 -23 -23 -22 -22 -23 -22 -21 -20 -20 -20 -20 -20 -20 -20 -19 -18 -18 -17 -17 -17 -17 -17
-28 -28 -28 -27 -28 -28 -26 -25 -25 -26 -25 -25 -25 -25 -25 -25 -25 -24 -24 -24 -23 -22 -23 -22 -22 -22 -22 -22 -21 -21 -21 -20 -21 -21 -20 -19 -19 -18 -18 -18 -18 -17 -17 -17
-27 -27 -27 -27 -26 -26 -25 -26 -26 -25 -26 -25 -25 -25 -25 -25 -25 -25 -25 -25 -24 -23 -22 -22 -22 -22 -22 -21 -21 -21 -20 -20 -20 -19 -19 -18 -19 -19 -19 -18 -18 -19 -18 -18
-27 -26 -26 -26 -26 -26 -26 -26 -26 -25 -25 -25 -25 -25 -26 -26 -26 -26 -25 -25 -24 -23 -22 -22 -22 -22 -22 -21 -21 -21 -20 -20 -20 -20 -20 -20 -21 -20 -20 -20 -19 -19 -19 -19
-26 -26 -26 -26 -26 -26 -26 -26 -26 -26 -25 -25 -25 -25 -26 -26 -26 -25 -24 -24 -24 -23 -23 -23 -23 -21 -22 -22 -21 -21 -20 -20 -19 -20 -20 -20 -20 -20 -20 -19 -19 -19 -19 -18
-26 -26 -26 -26 -26 -26 -26 -26 -26 -25 -25 -26 -25 -25 -25 -25 -26 -25 -24 -24 -24 -23 -23 -23 -23 -23 -22 -21 -21 -21 -20 -19 -20 -20 -20 -20 -19 -19 -18 -18 -18 -18 -18 -18
-25 -25 -25 -25 -25 -25 -25 -25 -26 -25 -25 -25 -25 -25 -25 -25 -25 -24 -24 -23 -23 -24 -23 -23 -23 -22 -22 -22 -21 -21 -20 -19 -20 -20 -20 -19 -19 -18 -18 -18 -17 -18 -18 -18
-25 -25 -25 -25 -25 -25 -25 -25 -25 -25 -26 -24 -24 -24 -24 -24 -24 -24 -23 -24 -24 -23 -23 -23 -22 -22 -22 -22 -21 -20 -20 -19 -19 -19 -18 -18 -18 -18 -17 -17 -17 -17 -18 -18
-25 -25 -25 -25 -25 -25 -25 -25 -25 -25 -25 -23 -24 -24 -24 -24 -24 -24 -23 -23 -24 -23 -22 -22 -21 -21 -21 -21 -21 -21 -20 -19 -18 -18 -18 -18 -18 -18 -18 -18 -18 -18 -18 -18
-26 -25 -26 -26 -26 -25 -25 -26 -26 -26 -23 -23 -24 -24 -24 -23 -23 -23 -24 -23 -22 -22 -21 -21 -22 -22 -22 -22 -21 -20 -20 -20 -19 -19 -19 -19 -19 -19 -19 -19 -19 -19 -19 -19
-26 -27 -27 -27 -26 -26 -25 -26 -26 -24 -23 -23 -23 -23 -23 -23 -23 -22 -22 -22 -22 -21 -21 -21 -21 -21 -21 -21 -20 -20 -20 -20 -20 -20 -19 -19 -19 -19 -19 -19 -19 -19 -19 -19
-26 -26 -26 -26 -25 -25 -25 -25 -23 -23 -22 -23 -23 -23 -22 -22 -22 -21 -21 -21 -21 -21 -21 -21 -21 -21 -20 -20 -20 -20 -20 -20 -20 -20 -20 -20 -20 -20 -20 -20 -20 -20 -21 -21